<?xml version="1.0" encoding="UTF-8" standalone="no" ?>
<gpx xmlns="http://www.topografix.com/GPX/1/1" xmlns:xsi="http://www.w3.org/2001/XMLSchema-instance" xsi:schemaLocation="http://www.topografix.com/GPX/1/1 http://www.topografix.com/GPX/1/1/gpx.xsd" version="1.1" creator="VisuGPX - https://www.visugpx.com">
  <metadata>
    <name>Les collines du vent - 1023 - UtagawaVTT.com</name>
  </metadata>
  <trk>
    <name><![CDATA[Les collines du vent - 1023 - UtagawaVTT.com]]></name>
    <trkseg>
      <trkpt lat="43.28639" lon="1.92175">
        <ele>194</ele>
        <time>2006-12-07T18:02:55Z</time>
      </trkpt>
      <trkpt lat="43.28585" lon="1.92201">
        <ele>196</ele>
        <time>2006-12-07T18:02:55Z</time>
      </trkpt>
      <trkpt lat="43.28532" lon="1.9225">
        <ele>201</ele>
        <time>2006-12-07T18:02:55Z</time>
      </trkpt>
      <trkpt lat="43.2851" lon="1.92252">
        <ele>201</ele>
        <time>2006-12-07T18:02:55Z</time>
      </trkpt>
      <trkpt lat="43.28549" lon="1.92312">
        <ele>206</ele>
        <time>2006-12-07T18:02:55Z</time>
      </trkpt>
      <trkpt lat="43.2856" lon="1.92359">
        <ele>207</ele>
        <time>2006-12-07T18:02:55Z</time>
      </trkpt>
      <trkpt lat="43.28536" lon="1.92387">
        <ele>208</ele>
        <time>2006-12-07T18:02:55Z</time>
      </trkpt>
      <trkpt lat="43.28444" lon="1.9246">
        <ele>212</ele>
        <time>2006-12-07T18:02:55Z</time>
      </trkpt>
      <trkpt lat="43.28343" lon="1.92523">
        <ele>216</ele>
        <time>2006-12-07T18:02:55Z</time>
      </trkpt>
      <trkpt lat="43.28285" lon="1.9257">
        <ele>219</ele>
        <time>2006-12-07T18:02:55Z</time>
      </trkpt>
      <trkpt lat="43.28264" lon="1.92568">
        <ele>219</ele>
        <time>2006-12-07T18:02:55Z</time>
      </trkpt>
      <trkpt lat="43.28231" lon="1.92548">
        <ele>222</ele>
        <time>2006-12-07T18:02:55Z</time>
      </trkpt>
      <trkpt lat="43.28206" lon="1.92542">
        <ele>225</ele>
        <time>2006-12-07T18:02:55Z</time>
      </trkpt>
      <trkpt lat="43.2815" lon="1.92542">
        <ele>226</ele>
        <time>2006-12-07T18:02:55Z</time>
      </trkpt>
      <trkpt lat="43.28096" lon="1.92578">
        <ele>226</ele>
        <time>2006-12-07T18:02:55Z</time>
      </trkpt>
      <trkpt lat="43.28036" lon="1.92628">
        <ele>226</ele>
        <time>2006-12-07T18:02:55Z</time>
      </trkpt>
      <trkpt lat="43.28" lon="1.92673">
        <ele>228</ele>
        <time>2006-12-07T18:02:55Z</time>
      </trkpt>
      <trkpt lat="43.27931" lon="1.92731">
        <ele>231</ele>
        <time>2006-12-07T18:02:55Z</time>
      </trkpt>
      <trkpt lat="43.27905" lon="1.92737">
        <ele>231</ele>
        <time>2006-12-07T18:02:55Z</time>
      </trkpt>
      <trkpt lat="43.27867" lon="1.92731">
        <ele>232</ele>
        <time>2006-12-07T18:02:55Z</time>
      </trkpt>
      <trkpt lat="43.27826" lon="1.92778">
        <ele>240</ele>
        <time>2006-12-07T18:02:55Z</time>
      </trkpt>
      <trkpt lat="43.27798" lon="1.92808">
        <ele>244</ele>
        <time>2006-12-07T18:02:55Z</time>
      </trkpt>
      <trkpt lat="43.27776" lon="1.92849">
        <ele>243</ele>
        <time>2006-12-07T18:02:55Z</time>
      </trkpt>
      <trkpt lat="43.27759" lon="1.93005">
        <ele>245</ele>
        <time>2006-12-07T18:02:55Z</time>
      </trkpt>
      <trkpt lat="43.2771" lon="1.93104">
        <ele>252</ele>
        <time>2006-12-07T18:02:55Z</time>
      </trkpt>
      <trkpt lat="43.27671" lon="1.93198">
        <ele>263</ele>
        <time>2006-12-07T18:02:55Z</time>
      </trkpt>
      <trkpt lat="43.27646" lon="1.93233">
        <ele>267</ele>
        <time>2006-12-07T18:02:55Z</time>
      </trkpt>
      <trkpt lat="43.27639" lon="1.93276">
        <ele>272</ele>
        <time>2006-12-07T18:02:55Z</time>
      </trkpt>
      <trkpt lat="43.27613" lon="1.9334">
        <ele>281</ele>
        <time>2006-12-07T18:02:55Z</time>
      </trkpt>
      <trkpt lat="43.27609" lon="1.93366">
        <ele>284</ele>
        <time>2006-12-07T18:02:55Z</time>
      </trkpt>
      <trkpt lat="43.27588" lon="1.93368">
        <ele>287</ele>
        <time>2006-12-07T18:02:55Z</time>
      </trkpt>
      <trkpt lat="43.27573" lon="1.93349">
        <ele>289</ele>
        <time>2006-12-07T18:02:55Z</time>
      </trkpt>
      <trkpt lat="43.27549" lon="1.93319">
        <ele>291</ele>
        <time>2006-12-07T18:02:55Z</time>
      </trkpt>
      <trkpt lat="43.27534" lon="1.93274">
        <ele>294</ele>
        <time>2006-12-07T18:02:55Z</time>
      </trkpt>
      <trkpt lat="43.27525" lon="1.93203">
        <ele>305</ele>
        <time>2006-12-07T18:02:55Z</time>
      </trkpt>
      <trkpt lat="43.27525" lon="1.93156">
        <ele>308</ele>
        <time>2006-12-07T18:02:55Z</time>
      </trkpt>
      <trkpt lat="43.27515" lon="1.93136">
        <ele>308</ele>
        <time>2006-12-07T18:02:55Z</time>
      </trkpt>
      <trkpt lat="43.27497" lon="1.93123">
        <ele>308</ele>
        <time>2006-12-07T18:02:55Z</time>
      </trkpt>
      <trkpt lat="43.27448" lon="1.93117">
        <ele>309</ele>
        <time>2006-12-07T18:02:55Z</time>
      </trkpt>
      <trkpt lat="43.2741" lon="1.93125">
        <ele>313</ele>
        <time>2006-12-07T18:02:55Z</time>
      </trkpt>
      <trkpt lat="43.27341" lon="1.93252">
        <ele>296</ele>
        <time>2006-12-07T18:02:55Z</time>
      </trkpt>
      <trkpt lat="43.27311" lon="1.93319">
        <ele>293</ele>
        <time>2006-12-07T18:02:55Z</time>
      </trkpt>
      <trkpt lat="43.27291" lon="1.9331">
        <ele>296</ele>
        <time>2006-12-07T18:02:55Z</time>
      </trkpt>
      <trkpt lat="43.27276" lon="1.93274">
        <ele>304</ele>
        <time>2006-12-07T18:02:55Z</time>
      </trkpt>
      <trkpt lat="43.27231" lon="1.93246">
        <ele>304</ele>
        <time>2006-12-07T18:02:55Z</time>
      </trkpt>
      <trkpt lat="43.27201" lon="1.93244">
        <ele>302</ele>
        <time>2006-12-07T18:02:55Z</time>
      </trkpt>
      <trkpt lat="43.2715" lon="1.93295">
        <ele>296</ele>
        <time>2006-12-07T18:02:55Z</time>
      </trkpt>
      <trkpt lat="43.27135" lon="1.93334">
        <ele>293</ele>
        <time>2006-12-07T18:02:55Z</time>
      </trkpt>
      <trkpt lat="43.2712" lon="1.93353">
        <ele>295</ele>
        <time>2006-12-07T18:02:55Z</time>
      </trkpt>
      <trkpt lat="43.27073" lon="1.93392">
        <ele>294</ele>
        <time>2006-12-07T18:02:55Z</time>
      </trkpt>
      <trkpt lat="43.2704" lon="1.9343">
        <ele>294</ele>
        <time>2006-12-07T18:02:55Z</time>
      </trkpt>
      <trkpt lat="43.2703" lon="1.9346">
        <ele>294</ele>
        <time>2006-12-07T18:02:55Z</time>
      </trkpt>
      <trkpt lat="43.27032" lon="1.93497">
        <ele>293</ele>
        <time>2006-12-07T18:02:55Z</time>
      </trkpt>
      <trkpt lat="43.27023" lon="1.93548">
        <ele>289</ele>
        <time>2006-12-07T18:02:55Z</time>
      </trkpt>
      <trkpt lat="43.27015" lon="1.93574">
        <ele>289</ele>
        <time>2006-12-07T18:02:55Z</time>
      </trkpt>
      <trkpt lat="43.27006" lon="1.93563">
        <ele>291</ele>
        <time>2006-12-07T18:02:55Z</time>
      </trkpt>
      <trkpt lat="43.26998" lon="1.9351">
        <ele>299</ele>
        <time>2006-12-07T18:02:55Z</time>
      </trkpt>
      <trkpt lat="43.26972" lon="1.93443">
        <ele>305</ele>
        <time>2006-12-07T18:02:55Z</time>
      </trkpt>
      <trkpt lat="43.26929" lon="1.93411">
        <ele>311</ele>
        <time>2006-12-07T18:02:55Z</time>
      </trkpt>
      <trkpt lat="43.26895" lon="1.93407">
        <ele>314</ele>
        <time>2006-12-07T18:02:55Z</time>
      </trkpt>
      <trkpt lat="43.26841" lon="1.93422">
        <ele>310</ele>
        <time>2006-12-07T18:02:55Z</time>
      </trkpt>
      <trkpt lat="43.26789" lon="1.93486">
        <ele>301</ele>
        <time>2006-12-07T18:02:55Z</time>
      </trkpt>
      <trkpt lat="43.26779" lon="1.93482">
        <ele>298</ele>
        <time>2006-12-07T18:02:55Z</time>
      </trkpt>
      <trkpt lat="43.26742" lon="1.93411">
        <ele>290</ele>
        <time>2006-12-07T18:02:55Z</time>
      </trkpt>
      <trkpt lat="43.26725" lon="1.93392">
        <ele>287</ele>
        <time>2006-12-07T18:02:55Z</time>
      </trkpt>
      <trkpt lat="43.26695" lon="1.93312">
        <ele>291</ele>
        <time>2006-12-07T18:02:55Z</time>
      </trkpt>
      <trkpt lat="43.26693" lon="1.93278">
        <ele>294</ele>
        <time>2006-12-07T18:02:55Z</time>
      </trkpt>
      <trkpt lat="43.26701" lon="1.93239">
        <ele>298</ele>
        <time>2006-12-07T18:02:55Z</time>
      </trkpt>
      <trkpt lat="43.26699" lon="1.93218">
        <ele>300</ele>
        <time>2006-12-07T18:02:55Z</time>
      </trkpt>
      <trkpt lat="43.26639" lon="1.93201">
        <ele>303</ele>
        <time>2006-12-07T18:02:55Z</time>
      </trkpt>
      <trkpt lat="43.26631" lon="1.9319">
        <ele>303</ele>
        <time>2006-12-07T18:02:55Z</time>
      </trkpt>
      <trkpt lat="43.2662" lon="1.93119">
        <ele>306</ele>
        <time>2006-12-07T18:02:55Z</time>
      </trkpt>
      <trkpt lat="43.26607" lon="1.93057">
        <ele>308</ele>
        <time>2006-12-07T18:02:55Z</time>
      </trkpt>
      <trkpt lat="43.26564" lon="1.92999">
        <ele>308</ele>
        <time>2006-12-07T18:02:55Z</time>
      </trkpt>
      <trkpt lat="43.26534" lon="1.92971">
        <ele>308</ele>
        <time>2006-12-07T18:02:55Z</time>
      </trkpt>
      <trkpt lat="43.26452" lon="1.9287">
        <ele>302</ele>
        <time>2006-12-07T18:02:55Z</time>
      </trkpt>
      <trkpt lat="43.26414" lon="1.92868">
        <ele>305</ele>
        <time>2006-12-07T18:02:55Z</time>
      </trkpt>
      <trkpt lat="43.26386" lon="1.92898">
        <ele>304</ele>
        <time>2006-12-07T18:02:55Z</time>
      </trkpt>
      <trkpt lat="43.26371" lon="1.92902">
        <ele>302</ele>
        <time>2006-12-07T18:02:55Z</time>
      </trkpt>
      <trkpt lat="43.26352" lon="1.92887">
        <ele>302</ele>
        <time>2006-12-07T18:02:55Z</time>
      </trkpt>
      <trkpt lat="43.26302" lon="1.92827">
        <ele>306</ele>
        <time>2006-12-07T18:02:55Z</time>
      </trkpt>
      <trkpt lat="43.26296" lon="1.92791">
        <ele>306</ele>
        <time>2006-12-07T18:02:55Z</time>
      </trkpt>
      <trkpt lat="43.26302" lon="1.92752">
        <ele>308</ele>
        <time>2006-12-07T18:02:55Z</time>
      </trkpt>
      <trkpt lat="43.26334" lon="1.92641">
        <ele>309</ele>
        <time>2006-12-07T18:02:55Z</time>
      </trkpt>
      <trkpt lat="43.26328" lon="1.92621">
        <ele>311</ele>
        <time>2006-12-07T18:02:55Z</time>
      </trkpt>
      <trkpt lat="43.26139" lon="1.9249">
        <ele>310</ele>
        <time>2006-12-07T18:02:55Z</time>
      </trkpt>
      <trkpt lat="43.2609" lon="1.92409">
        <ele>310</ele>
        <time>2006-12-07T18:02:55Z</time>
      </trkpt>
      <trkpt lat="43.26049" lon="1.92374">
        <ele>307</ele>
        <time>2006-12-07T18:02:55Z</time>
      </trkpt>
      <trkpt lat="43.2603" lon="1.92385">
        <ele>307</ele>
        <time>2006-12-07T18:02:55Z</time>
      </trkpt>
      <trkpt lat="43.26017" lon="1.92407">
        <ele>306</ele>
        <time>2006-12-07T18:02:55Z</time>
      </trkpt>
      <trkpt lat="43.2586" lon="1.92465">
        <ele>316</ele>
        <time>2006-12-07T18:02:55Z</time>
      </trkpt>
      <trkpt lat="43.25789" lon="1.92497">
        <ele>318</ele>
        <time>2006-12-07T18:02:55Z</time>
      </trkpt>
      <trkpt lat="43.25736" lon="1.92533">
        <ele>318</ele>
        <time>2006-12-07T18:02:55Z</time>
      </trkpt>
      <trkpt lat="43.25581" lon="1.92812">
        <ele>319</ele>
        <time>2006-12-07T18:02:55Z</time>
      </trkpt>
      <trkpt lat="43.25526" lon="1.92894">
        <ele>320</ele>
        <time>2006-12-07T18:02:55Z</time>
      </trkpt>
      <trkpt lat="43.2547" lon="1.9302">
        <ele>320</ele>
        <time>2006-12-07T18:02:55Z</time>
      </trkpt>
      <trkpt lat="43.2542" lon="1.93063">
        <ele>321</ele>
        <time>2006-12-07T18:02:55Z</time>
      </trkpt>
      <trkpt lat="43.25397" lon="1.93065">
        <ele>322</ele>
        <time>2006-12-07T18:02:55Z</time>
      </trkpt>
      <trkpt lat="43.25279" lon="1.93025">
        <ele>329</ele>
        <time>2006-12-07T18:02:55Z</time>
      </trkpt>
      <trkpt lat="43.25259" lon="1.93029">
        <ele>329</ele>
        <time>2006-12-07T18:02:55Z</time>
      </trkpt>
      <trkpt lat="43.25193" lon="1.93065">
        <ele>330</ele>
        <time>2006-12-07T18:02:55Z</time>
      </trkpt>
      <trkpt lat="43.25083" lon="1.93244">
        <ele>331</ele>
        <time>2006-12-07T18:02:55Z</time>
      </trkpt>
      <trkpt lat="43.25045" lon="1.93314">
        <ele>332</ele>
        <time>2006-12-07T18:02:55Z</time>
      </trkpt>
      <trkpt lat="43.25045" lon="1.93336">
        <ele>332</ele>
        <time>2006-12-07T18:02:55Z</time>
      </trkpt>
      <trkpt lat="43.25019" lon="1.93445">
        <ele>335</ele>
        <time>2006-12-07T18:02:55Z</time>
      </trkpt>
      <trkpt lat="43.25" lon="1.9349">
        <ele>338</ele>
        <time>2006-12-07T18:02:55Z</time>
      </trkpt>
      <trkpt lat="43.25008" lon="1.93492">
        <ele>338</ele>
        <time>2006-12-07T18:02:55Z</time>
      </trkpt>
      <trkpt lat="43.25066" lon="1.93441">
        <ele>329</ele>
        <time>2006-12-07T18:02:55Z</time>
      </trkpt>
      <trkpt lat="43.25154" lon="1.93396">
        <ele>311</ele>
        <time>2006-12-07T18:02:55Z</time>
      </trkpt>
      <trkpt lat="43.25176" lon="1.93396">
        <ele>308</ele>
        <time>2006-12-07T18:02:55Z</time>
      </trkpt>
      <trkpt lat="43.25202" lon="1.93407">
        <ele>306</ele>
        <time>2006-12-07T18:02:55Z</time>
      </trkpt>
      <trkpt lat="43.25244" lon="1.93443">
        <ele>299</ele>
        <time>2006-12-07T18:02:55Z</time>
      </trkpt>
      <trkpt lat="43.25242" lon="1.93467">
        <ele>296</ele>
        <time>2006-12-07T18:02:55Z</time>
      </trkpt>
      <trkpt lat="43.2521" lon="1.93501">
        <ele>290</ele>
        <time>2006-12-07T18:02:55Z</time>
      </trkpt>
      <trkpt lat="43.25225" lon="1.93514">
        <ele>287</ele>
        <time>2006-12-07T18:02:55Z</time>
      </trkpt>
      <trkpt lat="43.25257" lon="1.93516">
        <ele>283</ele>
        <time>2006-12-07T18:02:55Z</time>
      </trkpt>
      <trkpt lat="43.25305" lon="1.9349">
        <ele>277</ele>
        <time>2006-12-07T18:02:55Z</time>
      </trkpt>
      <trkpt lat="43.25395" lon="1.93495">
        <ele>270</ele>
        <time>2006-12-07T18:02:55Z</time>
      </trkpt>
      <trkpt lat="43.25429" lon="1.93505">
        <ele>269</ele>
        <time>2006-12-07T18:02:55Z</time>
      </trkpt>
      <trkpt lat="43.25536" lon="1.93568">
        <ele>262</ele>
        <time>2006-12-07T18:02:55Z</time>
      </trkpt>
      <trkpt lat="43.25541" lon="1.93625">
        <ele>261</ele>
        <time>2006-12-07T18:02:55Z</time>
      </trkpt>
      <trkpt lat="43.25523" lon="1.93739">
        <ele>259</ele>
        <time>2006-12-07T18:02:55Z</time>
      </trkpt>
      <trkpt lat="43.2548" lon="1.93879">
        <ele>258</ele>
        <time>2006-12-07T18:02:55Z</time>
      </trkpt>
      <trkpt lat="43.25453" lon="1.94022">
        <ele>261</ele>
        <time>2006-12-07T18:02:55Z</time>
      </trkpt>
      <trkpt lat="43.25429" lon="1.94104">
        <ele>262</ele>
        <time>2006-12-07T18:02:55Z</time>
      </trkpt>
      <trkpt lat="43.25418" lon="1.9411">
        <ele>262</ele>
        <time>2006-12-07T18:02:55Z</time>
      </trkpt>
      <trkpt lat="43.25405" lon="1.941">
        <ele>263</ele>
        <time>2006-12-07T18:02:55Z</time>
      </trkpt>
      <trkpt lat="43.25382" lon="1.94035">
        <ele>264</ele>
        <time>2006-12-07T18:02:55Z</time>
      </trkpt>
      <trkpt lat="43.2535" lon="1.93988">
        <ele>265</ele>
        <time>2006-12-07T18:02:55Z</time>
      </trkpt>
      <trkpt lat="43.25324" lon="1.93997">
        <ele>264</ele>
        <time>2006-12-07T18:02:55Z</time>
      </trkpt>
      <trkpt lat="43.25324" lon="1.94098">
        <ele>254</ele>
        <time>2006-12-07T18:02:55Z</time>
      </trkpt>
      <trkpt lat="43.25328" lon="1.94132">
        <ele>250</ele>
        <time>2006-12-07T18:02:55Z</time>
      </trkpt>
      <trkpt lat="43.2533" lon="1.9417">
        <ele>249</ele>
        <time>2006-12-07T18:02:55Z</time>
      </trkpt>
      <trkpt lat="43.25354" lon="1.94177">
        <ele>247</ele>
        <time>2006-12-07T18:02:55Z</time>
      </trkpt>
      <trkpt lat="43.25365" lon="1.94196">
        <ele>246</ele>
        <time>2006-12-07T18:02:55Z</time>
      </trkpt>
      <trkpt lat="43.25384" lon="1.94276">
        <ele>242</ele>
        <time>2006-12-07T18:02:55Z</time>
      </trkpt>
      <trkpt lat="43.25367" lon="1.94355">
        <ele>241</ele>
        <time>2006-12-07T18:02:55Z</time>
      </trkpt>
      <trkpt lat="43.25362" lon="1.94422">
        <ele>238</ele>
        <time>2006-12-07T18:02:55Z</time>
      </trkpt>
      <trkpt lat="43.25345" lon="1.94522">
        <ele>238</ele>
        <time>2006-12-07T18:02:55Z</time>
      </trkpt>
      <trkpt lat="43.25283" lon="1.94533">
        <ele>235</ele>
        <time>2006-12-07T18:02:55Z</time>
      </trkpt>
      <trkpt lat="43.25341" lon="1.94698">
        <ele>232</ele>
        <time>2006-12-07T18:02:55Z</time>
      </trkpt>
      <trkpt lat="43.25362" lon="1.94861">
        <ele>232</ele>
        <time>2006-12-07T18:02:55Z</time>
      </trkpt>
      <trkpt lat="43.25358" lon="1.94898">
        <ele>232</ele>
        <time>2006-12-07T18:02:55Z</time>
      </trkpt>
      <trkpt lat="43.2536" lon="1.94932">
        <ele>233</ele>
        <time>2006-12-07T18:02:55Z</time>
      </trkpt>
      <trkpt lat="43.25371" lon="1.94958">
        <ele>237</ele>
        <time>2006-12-07T18:02:55Z</time>
      </trkpt>
      <trkpt lat="43.25371" lon="1.94973">
        <ele>239</ele>
        <time>2006-12-07T18:02:55Z</time>
      </trkpt>
      <trkpt lat="43.25352" lon="1.9502">
        <ele>240</ele>
        <time>2006-12-07T18:02:55Z</time>
      </trkpt>
      <trkpt lat="43.25352" lon="1.95057">
        <ele>241</ele>
        <time>2006-12-07T18:02:55Z</time>
      </trkpt>
      <trkpt lat="43.25367" lon="1.9507">
        <ele>241</ele>
        <time>2006-12-07T18:02:55Z</time>
      </trkpt>
      <trkpt lat="43.25388" lon="1.95072">
        <ele>241</ele>
        <time>2006-12-07T18:02:55Z</time>
      </trkpt>
      <trkpt lat="43.25418" lon="1.9511">
        <ele>246</ele>
        <time>2006-12-07T18:02:55Z</time>
      </trkpt>
      <trkpt lat="43.25438" lon="1.95175">
        <ele>251</ele>
        <time>2006-12-07T18:02:55Z</time>
      </trkpt>
      <trkpt lat="43.25444" lon="1.95228">
        <ele>253</ele>
        <time>2006-12-07T18:02:55Z</time>
      </trkpt>
      <trkpt lat="43.2544" lon="1.95261">
        <ele>256</ele>
        <time>2006-12-07T18:02:55Z</time>
      </trkpt>
      <trkpt lat="43.25408" lon="1.95295">
        <ele>258</ele>
        <time>2006-12-07T18:02:55Z</time>
      </trkpt>
      <trkpt lat="43.25386" lon="1.95329">
        <ele>257</ele>
        <time>2006-12-07T18:02:55Z</time>
      </trkpt>
      <trkpt lat="43.25382" lon="1.95346">
        <ele>257</ele>
        <time>2006-12-07T18:02:55Z</time>
      </trkpt>
      <trkpt lat="43.2539" lon="1.95402">
        <ele>257</ele>
        <time>2006-12-07T18:02:55Z</time>
      </trkpt>
      <trkpt lat="43.25435" lon="1.95542">
        <ele>261</ele>
        <time>2006-12-07T18:02:55Z</time>
      </trkpt>
      <trkpt lat="43.25442" lon="1.95565">
        <ele>262</ele>
        <time>2006-12-07T18:02:55Z</time>
      </trkpt>
      <trkpt lat="43.2544" lon="1.95576">
        <ele>263</ele>
        <time>2006-12-07T18:02:55Z</time>
      </trkpt>
      <trkpt lat="43.25425" lon="1.95632">
        <ele>264</ele>
        <time>2006-12-07T18:02:55Z</time>
      </trkpt>
      <trkpt lat="43.2539" lon="1.95688">
        <ele>267</ele>
        <time>2006-12-07T18:02:55Z</time>
      </trkpt>
      <trkpt lat="43.25388" lon="1.95709">
        <ele>266</ele>
        <time>2006-12-07T18:02:55Z</time>
      </trkpt>
      <trkpt lat="43.25392" lon="1.95745">
        <ele>264</ele>
        <time>2006-12-07T18:02:55Z</time>
      </trkpt>
      <trkpt lat="43.2542" lon="1.95818">
        <ele>262</ele>
        <time>2006-12-07T18:02:55Z</time>
      </trkpt>
      <trkpt lat="43.25423" lon="1.95838">
        <ele>264</ele>
        <time>2006-12-07T18:02:55Z</time>
      </trkpt>
      <trkpt lat="43.25429" lon="1.95876">
        <ele>265</ele>
        <time>2006-12-07T18:02:55Z</time>
      </trkpt>
      <trkpt lat="43.25442" lon="1.95919">
        <ele>264</ele>
        <time>2006-12-07T18:02:55Z</time>
      </trkpt>
      <trkpt lat="43.2542" lon="1.95928">
        <ele>259</ele>
        <time>2006-12-07T18:02:55Z</time>
      </trkpt>
      <trkpt lat="43.25386" lon="1.95941">
        <ele>253</ele>
        <time>2006-12-07T18:02:55Z</time>
      </trkpt>
      <trkpt lat="43.25382" lon="1.95966">
        <ele>247</ele>
        <time>2006-12-07T18:02:55Z</time>
      </trkpt>
      <trkpt lat="43.25365" lon="1.95973">
        <ele>236</ele>
        <time>2006-12-07T18:02:55Z</time>
      </trkpt>
      <trkpt lat="43.25345" lon="1.95992">
        <ele>227</ele>
        <time>2006-12-07T18:02:55Z</time>
      </trkpt>
      <trkpt lat="43.25315" lon="1.96151">
        <ele>219</ele>
        <time>2006-12-07T18:02:55Z</time>
      </trkpt>
      <trkpt lat="43.25315" lon="1.96162">
        <ele>219</ele>
        <time>2006-12-07T18:02:55Z</time>
      </trkpt>
      <trkpt lat="43.25328" lon="1.96185">
        <ele>215</ele>
        <time>2006-12-07T18:02:55Z</time>
      </trkpt>
      <trkpt lat="43.25343" lon="1.9622">
        <ele>212</ele>
        <time>2006-12-07T18:02:55Z</time>
      </trkpt>
      <trkpt lat="43.25343" lon="1.96235">
        <ele>211</ele>
        <time>2006-12-07T18:02:55Z</time>
      </trkpt>
      <trkpt lat="43.25266" lon="1.96207">
        <ele>208</ele>
        <time>2006-12-07T18:02:55Z</time>
      </trkpt>
      <trkpt lat="43.25268" lon="1.9623">
        <ele>209</ele>
        <time>2006-12-07T18:02:55Z</time>
      </trkpt>
      <trkpt lat="43.25289" lon="1.96278">
        <ele>210</ele>
        <time>2006-12-07T18:02:55Z</time>
      </trkpt>
      <trkpt lat="43.25294" lon="1.96299">
        <ele>211</ele>
        <time>2006-12-07T18:02:55Z</time>
      </trkpt>
      <trkpt lat="43.253" lon="1.96389">
        <ele>212</ele>
        <time>2006-12-07T18:02:55Z</time>
      </trkpt>
      <trkpt lat="43.25287" lon="1.96492">
        <ele>214</ele>
        <time>2006-12-07T18:02:55Z</time>
      </trkpt>
      <trkpt lat="43.25279" lon="1.96499">
        <ele>215</ele>
        <time>2006-12-07T18:02:55Z</time>
      </trkpt>
      <trkpt lat="43.25259" lon="1.96499">
        <ele>217</ele>
        <time>2006-12-07T18:02:55Z</time>
      </trkpt>
      <trkpt lat="43.25141" lon="1.96479">
        <ele>228</ele>
        <time>2006-12-07T18:02:55Z</time>
      </trkpt>
      <trkpt lat="43.25131" lon="1.9646">
        <ele>230</ele>
        <time>2006-12-07T18:02:55Z</time>
      </trkpt>
      <trkpt lat="43.25129" lon="1.96421">
        <ele>232</ele>
        <time>2006-12-07T18:02:55Z</time>
      </trkpt>
      <trkpt lat="43.25109" lon="1.96417">
        <ele>232</ele>
        <time>2006-12-07T18:02:55Z</time>
      </trkpt>
      <trkpt lat="43.25041" lon="1.96496">
        <ele>245</ele>
        <time>2006-12-07T18:02:55Z</time>
      </trkpt>
      <trkpt lat="43.24987" lon="1.9658">
        <ele>246</ele>
        <time>2006-12-07T18:02:55Z</time>
      </trkpt>
      <trkpt lat="43.24978" lon="1.96589">
        <ele>245</ele>
        <time>2006-12-07T18:02:55Z</time>
      </trkpt>
      <trkpt lat="43.24953" lon="1.96582">
        <ele>247</ele>
        <time>2006-12-07T18:02:55Z</time>
      </trkpt>
      <trkpt lat="43.24933" lon="1.96595">
        <ele>246</ele>
        <time>2006-12-07T18:02:55Z</time>
      </trkpt>
      <trkpt lat="43.24927" lon="1.96623">
        <ele>244</ele>
        <time>2006-12-07T18:02:55Z</time>
      </trkpt>
      <trkpt lat="43.24938" lon="1.96713">
        <ele>241</ele>
        <time>2006-12-07T18:02:55Z</time>
      </trkpt>
      <trkpt lat="43.24929" lon="1.96741">
        <ele>238</ele>
        <time>2006-12-07T18:02:55Z</time>
      </trkpt>
      <trkpt lat="43.2491" lon="1.96786">
        <ele>232</ele>
        <time>2006-12-07T18:02:55Z</time>
      </trkpt>
      <trkpt lat="43.24908" lon="1.96836">
        <ele>230</ele>
        <time>2006-12-07T18:02:55Z</time>
      </trkpt>
      <trkpt lat="43.24923" lon="1.96861">
        <ele>229</ele>
        <time>2006-12-07T18:02:55Z</time>
      </trkpt>
      <trkpt lat="43.25028" lon="1.96906">
        <ele>219</ele>
        <time>2006-12-07T18:02:55Z</time>
      </trkpt>
      <trkpt lat="43.25034" lon="1.96926">
        <ele>217</ele>
        <time>2006-12-07T18:02:55Z</time>
      </trkpt>
      <trkpt lat="43.25034" lon="1.96973">
        <ele>212</ele>
        <time>2006-12-07T18:02:55Z</time>
      </trkpt>
      <trkpt lat="43.2509" lon="1.9699">
        <ele>215</ele>
        <time>2006-12-07T18:02:55Z</time>
      </trkpt>
      <trkpt lat="43.25178" lon="1.97035">
        <ele>210</ele>
        <time>2006-12-07T18:02:55Z</time>
      </trkpt>
      <trkpt lat="43.25184" lon="1.97044">
        <ele>207</ele>
        <time>2006-12-07T18:02:55Z</time>
      </trkpt>
      <trkpt lat="43.25184" lon="1.97142">
        <ele>200</ele>
        <time>2006-12-07T18:02:55Z</time>
      </trkpt>
      <trkpt lat="43.2521" lon="1.97183">
        <ele>197</ele>
        <time>2006-12-07T18:02:55Z</time>
      </trkpt>
      <trkpt lat="43.2521" lon="1.97226">
        <ele>198</ele>
        <time>2006-12-07T18:02:55Z</time>
      </trkpt>
      <trkpt lat="43.25184" lon="1.97252">
        <ele>200</ele>
        <time>2006-12-07T18:02:55Z</time>
      </trkpt>
      <trkpt lat="43.25154" lon="1.97269">
        <ele>204</ele>
        <time>2006-12-07T18:02:55Z</time>
      </trkpt>
      <trkpt lat="43.25109" lon="1.9732">
        <ele>209</ele>
        <time>2006-12-07T18:02:55Z</time>
      </trkpt>
      <trkpt lat="43.25088" lon="1.97458">
        <ele>212</ele>
        <time>2006-12-07T18:02:55Z</time>
      </trkpt>
      <trkpt lat="43.24957" lon="1.97709">
        <ele>205</ele>
        <time>2006-12-07T18:02:55Z</time>
      </trkpt>
      <trkpt lat="43.24897" lon="1.97756">
        <ele>203</ele>
        <time>2006-12-07T18:02:55Z</time>
      </trkpt>
      <trkpt lat="43.24854" lon="1.97803">
        <ele>206</ele>
        <time>2006-12-07T18:02:55Z</time>
      </trkpt>
      <trkpt lat="43.24772" lon="1.97915">
        <ele>204</ele>
        <time>2006-12-07T18:02:55Z</time>
      </trkpt>
      <trkpt lat="43.24736" lon="1.97986">
        <ele>205</ele>
        <time>2006-12-07T18:02:55Z</time>
      </trkpt>
      <trkpt lat="43.24706" lon="1.98112">
        <ele>190</ele>
        <time>2006-12-07T18:02:55Z</time>
      </trkpt>
      <trkpt lat="43.24727" lon="1.98134">
        <ele>190</ele>
        <time>2006-12-07T18:02:55Z</time>
      </trkpt>
      <trkpt lat="43.24717" lon="1.98155">
        <ele>188</ele>
        <time>2006-12-07T18:02:55Z</time>
      </trkpt>
      <trkpt lat="43.24693" lon="1.98277">
        <ele>181</ele>
        <time>2006-12-07T18:02:55Z</time>
      </trkpt>
      <trkpt lat="43.24719" lon="1.98338">
        <ele>180</ele>
        <time>2006-12-07T18:02:55Z</time>
      </trkpt>
      <trkpt lat="43.24708" lon="1.98353">
        <ele>180</ele>
        <time>2006-12-07T18:02:55Z</time>
      </trkpt>
      <trkpt lat="43.24699" lon="1.98355">
        <ele>181</ele>
        <time>2006-12-07T18:02:55Z</time>
      </trkpt>
      <trkpt lat="43.24684" lon="1.98357">
        <ele>181</ele>
        <time>2006-12-07T18:02:55Z</time>
      </trkpt>
      <trkpt lat="43.24669" lon="1.98348">
        <ele>183</ele>
        <time>2006-12-07T18:02:55Z</time>
      </trkpt>
      <trkpt lat="43.24659" lon="1.9832">
        <ele>189</ele>
        <time>2006-12-07T18:02:55Z</time>
      </trkpt>
      <trkpt lat="43.24639" lon="1.98305">
        <ele>193</ele>
        <time>2006-12-07T18:02:55Z</time>
      </trkpt>
      <trkpt lat="43.24592" lon="1.98318">
        <ele>197</ele>
        <time>2006-12-07T18:02:55Z</time>
      </trkpt>
      <trkpt lat="43.2456" lon="1.98318">
        <ele>202</ele>
        <time>2006-12-07T18:02:55Z</time>
      </trkpt>
      <trkpt lat="43.24498" lon="1.98308">
        <ele>209</ele>
        <time>2006-12-07T18:02:55Z</time>
      </trkpt>
      <trkpt lat="43.24375" lon="1.98247">
        <ele>221</ele>
        <time>2006-12-07T18:02:55Z</time>
      </trkpt>
      <trkpt lat="43.24275" lon="1.98166">
        <ele>220</ele>
        <time>2006-12-07T18:02:55Z</time>
      </trkpt>
      <trkpt lat="43.24234" lon="1.98123">
        <ele>220</ele>
        <time>2006-12-07T18:02:55Z</time>
      </trkpt>
      <trkpt lat="43.24184" lon="1.98052">
        <ele>219</ele>
        <time>2006-12-07T18:02:55Z</time>
      </trkpt>
      <trkpt lat="43.24107" lon="1.97932">
        <ele>218</ele>
        <time>2006-12-07T18:02:55Z</time>
      </trkpt>
      <trkpt lat="43.24099" lon="1.97904">
        <ele>218</ele>
        <time>2006-12-07T18:02:55Z</time>
      </trkpt>
      <trkpt lat="43.24094" lon="1.97872">
        <ele>218</ele>
        <time>2006-12-07T18:02:55Z</time>
      </trkpt>
      <trkpt lat="43.24054" lon="1.97722">
        <ele>227</ele>
        <time>2006-12-07T18:02:55Z</time>
      </trkpt>
      <trkpt lat="43.24054" lon="1.97563">
        <ele>229</ele>
        <time>2006-12-07T18:02:55Z</time>
      </trkpt>
      <trkpt lat="43.24047" lon="1.97488">
        <ele>232</ele>
        <time>2006-12-07T18:02:55Z</time>
      </trkpt>
      <trkpt lat="43.24023" lon="1.97432">
        <ele>234</ele>
        <time>2006-12-07T18:02:55Z</time>
      </trkpt>
      <trkpt lat="43.24019" lon="1.9737">
        <ele>236</ele>
        <time>2006-12-07T18:02:55Z</time>
      </trkpt>
      <trkpt lat="43.24023" lon="1.97316">
        <ele>238</ele>
        <time>2006-12-07T18:02:55Z</time>
      </trkpt>
      <trkpt lat="43.24039" lon="1.97286">
        <ele>239</ele>
        <time>2006-12-07T18:02:55Z</time>
      </trkpt>
      <trkpt lat="43.24015" lon="1.97258">
        <ele>244</ele>
        <time>2006-12-07T18:02:55Z</time>
      </trkpt>
      <trkpt lat="43.23996" lon="1.97237">
        <ele>248</ele>
        <time>2006-12-07T18:02:55Z</time>
      </trkpt>
      <trkpt lat="43.23961" lon="1.97181">
        <ele>256</ele>
        <time>2006-12-07T18:02:55Z</time>
      </trkpt>
      <trkpt lat="43.23875" lon="1.97076">
        <ele>259</ele>
        <time>2006-12-07T18:02:55Z</time>
      </trkpt>
      <trkpt lat="43.23833" lon="1.97022">
        <ele>262</ele>
        <time>2006-12-07T18:02:55Z</time>
      </trkpt>
      <trkpt lat="43.238" lon="1.96966">
        <ele>267</ele>
        <time>2006-12-07T18:02:55Z</time>
      </trkpt>
      <trkpt lat="43.23753" lon="1.96853">
        <ele>268</ele>
        <time>2006-12-07T18:02:55Z</time>
      </trkpt>
      <trkpt lat="43.23708" lon="1.96752">
        <ele>274</ele>
        <time>2006-12-07T18:02:55Z</time>
      </trkpt>
      <trkpt lat="43.23665" lon="1.9667">
        <ele>277</ele>
        <time>2006-12-07T18:02:55Z</time>
      </trkpt>
      <trkpt lat="43.23616" lon="1.96619">
        <ele>283</ele>
        <time>2006-12-07T18:02:55Z</time>
      </trkpt>
      <trkpt lat="43.23549" lon="1.96524">
        <ele>289</ele>
        <time>2006-12-07T18:02:55Z</time>
      </trkpt>
      <trkpt lat="43.23526" lon="1.96505">
        <ele>289</ele>
        <time>2006-12-07T18:02:55Z</time>
      </trkpt>
      <trkpt lat="43.2344" lon="1.96494">
        <ele>294</ele>
        <time>2006-12-07T18:02:55Z</time>
      </trkpt>
      <trkpt lat="43.23322" lon="1.96439">
        <ele>289</ele>
        <time>2006-12-07T18:02:55Z</time>
      </trkpt>
      <trkpt lat="43.23298" lon="1.96439">
        <ele>290</ele>
        <time>2006-12-07T18:02:55Z</time>
      </trkpt>
      <trkpt lat="43.23292" lon="1.96368">
        <ele>287</ele>
        <time>2006-12-07T18:02:55Z</time>
      </trkpt>
      <trkpt lat="43.23277" lon="1.96351">
        <ele>287</ele>
        <time>2006-12-07T18:02:55Z</time>
      </trkpt>
      <trkpt lat="43.23275" lon="1.96318">
        <ele>285</ele>
        <time>2006-12-07T18:02:55Z</time>
      </trkpt>
      <trkpt lat="43.23281" lon="1.96284">
        <ele>287</ele>
        <time>2006-12-07T18:02:55Z</time>
      </trkpt>
      <trkpt lat="43.23283" lon="1.96271">
        <ele>289</ele>
        <time>2006-12-07T18:02:55Z</time>
      </trkpt>
      <trkpt lat="43.23313" lon="1.96267">
        <ele>293</ele>
        <time>2006-12-07T18:02:55Z</time>
      </trkpt>
      <trkpt lat="43.23343" lon="1.96243">
        <ele>297</ele>
        <time>2006-12-07T18:02:55Z</time>
      </trkpt>
      <trkpt lat="43.2336" lon="1.96205">
        <ele>300</ele>
        <time>2006-12-07T18:02:55Z</time>
      </trkpt>
      <trkpt lat="43.23354" lon="1.96185">
        <ele>303</ele>
        <time>2006-12-07T18:02:55Z</time>
      </trkpt>
      <trkpt lat="43.23343" lon="1.96192">
        <ele>305</ele>
        <time>2006-12-07T18:02:55Z</time>
      </trkpt>
      <trkpt lat="43.23339" lon="1.96207">
        <ele>307</ele>
        <time>2006-12-07T18:02:55Z</time>
      </trkpt>
      <trkpt lat="43.23318" lon="1.9622">
        <ele>308</ele>
        <time>2006-12-07T18:02:55Z</time>
      </trkpt>
      <trkpt lat="43.23283" lon="1.96183">
        <ele>312</ele>
        <time>2006-12-07T18:02:55Z</time>
      </trkpt>
      <trkpt lat="43.23247" lon="1.96168">
        <ele>314</ele>
        <time>2006-12-07T18:02:55Z</time>
      </trkpt>
      <trkpt lat="43.23212" lon="1.96179">
        <ele>318</ele>
        <time>2006-12-07T18:02:55Z</time>
      </trkpt>
      <trkpt lat="43.23191" lon="1.96198">
        <ele>320</ele>
        <time>2006-12-07T18:02:55Z</time>
      </trkpt>
      <trkpt lat="43.23135" lon="1.96316">
        <ele>329</ele>
        <time>2006-12-07T18:02:55Z</time>
      </trkpt>
      <trkpt lat="43.23127" lon="1.96353">
        <ele>331</ele>
        <time>2006-12-07T18:02:55Z</time>
      </trkpt>
      <trkpt lat="43.23107" lon="1.96376">
        <ele>335</ele>
        <time>2006-12-07T18:02:55Z</time>
      </trkpt>
      <trkpt lat="43.23084" lon="1.96363">
        <ele>337</ele>
        <time>2006-12-07T18:02:55Z</time>
      </trkpt>
      <trkpt lat="43.23054" lon="1.96353">
        <ele>339</ele>
        <time>2006-12-07T18:02:55Z</time>
      </trkpt>
      <trkpt lat="43.23032" lon="1.96357">
        <ele>341</ele>
        <time>2006-12-07T18:02:55Z</time>
      </trkpt>
      <trkpt lat="43.23002" lon="1.96383">
        <ele>346</ele>
        <time>2006-12-07T18:02:55Z</time>
      </trkpt>
      <trkpt lat="43.22968" lon="1.96411">
        <ele>351</ele>
        <time>2006-12-07T18:02:55Z</time>
      </trkpt>
      <trkpt lat="43.2294" lon="1.96411">
        <ele>353</ele>
        <time>2006-12-07T18:02:55Z</time>
      </trkpt>
      <trkpt lat="43.22815" lon="1.96462">
        <ele>364</ele>
        <time>2006-12-07T18:02:55Z</time>
      </trkpt>
      <trkpt lat="43.2279" lon="1.96466">
        <ele>366</ele>
        <time>2006-12-07T18:02:55Z</time>
      </trkpt>
      <trkpt lat="43.22768" lon="1.9646">
        <ele>369</ele>
        <time>2006-12-07T18:02:55Z</time>
      </trkpt>
      <trkpt lat="43.22762" lon="1.96432">
        <ele>370</ele>
        <time>2006-12-07T18:02:55Z</time>
      </trkpt>
      <trkpt lat="43.22745" lon="1.96404">
        <ele>371</ele>
        <time>2006-12-07T18:02:55Z</time>
      </trkpt>
      <trkpt lat="43.22727" lon="1.96398">
        <ele>375</ele>
        <time>2006-12-07T18:02:55Z</time>
      </trkpt>
      <trkpt lat="43.22689" lon="1.96363">
        <ele>383</ele>
        <time>2006-12-07T18:02:55Z</time>
      </trkpt>
      <trkpt lat="43.2267" lon="1.96376">
        <ele>384</ele>
        <time>2006-12-07T18:02:55Z</time>
      </trkpt>
      <trkpt lat="43.22646" lon="1.96419">
        <ele>384</ele>
        <time>2006-12-07T18:02:55Z</time>
      </trkpt>
      <trkpt lat="43.22569" lon="1.9646">
        <ele>385</ele>
        <time>2006-12-07T18:02:55Z</time>
      </trkpt>
      <trkpt lat="43.22554" lon="1.96503">
        <ele>387</ele>
        <time>2006-12-07T18:02:55Z</time>
      </trkpt>
      <trkpt lat="43.22554" lon="1.9652">
        <ele>385</ele>
        <time>2006-12-07T18:02:55Z</time>
      </trkpt>
      <trkpt lat="43.22547" lon="1.96529">
        <ele>385</ele>
        <time>2006-12-07T18:02:55Z</time>
      </trkpt>
      <trkpt lat="43.22539" lon="1.96574">
        <ele>384</ele>
        <time>2006-12-07T18:02:55Z</time>
      </trkpt>
      <trkpt lat="43.22521" lon="1.96625">
        <ele>384</ele>
        <time>2006-12-07T18:02:55Z</time>
      </trkpt>
      <trkpt lat="43.22519" lon="1.9667">
        <ele>386</ele>
        <time>2006-12-07T18:02:55Z</time>
      </trkpt>
      <trkpt lat="43.22513" lon="1.96683">
        <ele>386</ele>
        <time>2006-12-07T18:02:55Z</time>
      </trkpt>
      <trkpt lat="43.22487" lon="1.967">
        <ele>387</ele>
        <time>2006-12-07T18:02:55Z</time>
      </trkpt>
      <trkpt lat="43.22481" lon="1.96715">
        <ele>387</ele>
        <time>2006-12-07T18:02:55Z</time>
      </trkpt>
      <trkpt lat="43.22442" lon="1.9673">
        <ele>388</ele>
        <time>2006-12-07T18:02:55Z</time>
      </trkpt>
      <trkpt lat="43.22369" lon="1.96707">
        <ele>390</ele>
        <time>2006-12-07T18:02:55Z</time>
      </trkpt>
      <trkpt lat="43.22318" lon="1.96715">
        <ele>390</ele>
        <time>2006-12-07T18:02:55Z</time>
      </trkpt>
      <trkpt lat="43.22247" lon="1.96808">
        <ele>393</ele>
        <time>2006-12-07T18:02:55Z</time>
      </trkpt>
      <trkpt lat="43.22238" lon="1.96844">
        <ele>395</ele>
        <time>2006-12-07T18:02:55Z</time>
      </trkpt>
      <trkpt lat="43.2223" lon="1.96887">
        <ele>396</ele>
        <time>2006-12-07T18:02:55Z</time>
      </trkpt>
      <trkpt lat="43.22204" lon="1.96923">
        <ele>392</ele>
        <time>2006-12-07T18:02:55Z</time>
      </trkpt>
      <trkpt lat="43.22191" lon="1.97042">
        <ele>376</ele>
        <time>2006-12-07T18:02:55Z</time>
      </trkpt>
      <trkpt lat="43.22187" lon="1.97065">
        <ele>376</ele>
        <time>2006-12-07T18:02:55Z</time>
      </trkpt>
      <trkpt lat="43.22178" lon="1.97076">
        <ele>375</ele>
        <time>2006-12-07T18:02:55Z</time>
      </trkpt>
      <trkpt lat="43.2217" lon="1.97121">
        <ele>375</ele>
        <time>2006-12-07T18:02:55Z</time>
      </trkpt>
      <trkpt lat="43.22163" lon="1.97177">
        <ele>371</ele>
        <time>2006-12-07T18:02:55Z</time>
      </trkpt>
      <trkpt lat="43.22182" lon="1.97378">
        <ele>361</ele>
        <time>2006-12-07T18:02:55Z</time>
      </trkpt>
      <trkpt lat="43.2217" lon="1.97473">
        <ele>358</ele>
        <time>2006-12-07T18:02:55Z</time>
      </trkpt>
      <trkpt lat="43.22088" lon="1.97503">
        <ele>360</ele>
        <time>2006-12-07T18:02:55Z</time>
      </trkpt>
      <trkpt lat="43.22052" lon="1.97546">
        <ele>363</ele>
        <time>2006-12-07T18:02:55Z</time>
      </trkpt>
      <trkpt lat="43.22011" lon="1.97574">
        <ele>365</ele>
        <time>2006-12-07T18:02:55Z</time>
      </trkpt>
      <trkpt lat="43.21994" lon="1.97593">
        <ele>365</ele>
        <time>2006-12-07T18:02:55Z</time>
      </trkpt>
      <trkpt lat="43.21987" lon="1.9761">
        <ele>365</ele>
        <time>2006-12-07T18:02:55Z</time>
      </trkpt>
      <trkpt lat="43.21974" lon="1.97692">
        <ele>365</ele>
        <time>2006-12-07T18:02:55Z</time>
      </trkpt>
      <trkpt lat="43.21966" lon="1.97707">
        <ele>365</ele>
        <time>2006-12-07T18:02:55Z</time>
      </trkpt>
      <trkpt lat="43.21899" lon="1.97735">
        <ele>372</ele>
        <time>2006-12-07T18:02:55Z</time>
      </trkpt>
      <trkpt lat="43.2188" lon="1.97756">
        <ele>374</ele>
        <time>2006-12-07T18:02:55Z</time>
      </trkpt>
      <trkpt lat="43.21876" lon="1.97784">
        <ele>373</ele>
        <time>2006-12-07T18:02:55Z</time>
      </trkpt>
      <trkpt lat="43.21897" lon="1.97908">
        <ele>364</ele>
        <time>2006-12-07T18:02:55Z</time>
      </trkpt>
      <trkpt lat="43.21888" lon="1.97943">
        <ele>362</ele>
        <time>2006-12-07T18:02:55Z</time>
      </trkpt>
      <trkpt lat="43.21861" lon="1.97999">
        <ele>354</ele>
        <time>2006-12-07T18:02:55Z</time>
      </trkpt>
      <trkpt lat="43.21854" lon="1.98061">
        <ele>351</ele>
        <time>2006-12-07T18:02:55Z</time>
      </trkpt>
      <trkpt lat="43.21871" lon="1.9811">
        <ele>348</ele>
        <time>2006-12-07T18:02:55Z</time>
      </trkpt>
      <trkpt lat="43.21863" lon="1.98132">
        <ele>348</ele>
        <time>2006-12-07T18:02:55Z</time>
      </trkpt>
      <trkpt lat="43.21854" lon="1.98155">
        <ele>349</ele>
        <time>2006-12-07T18:02:55Z</time>
      </trkpt>
      <trkpt lat="43.21811" lon="1.98168">
        <ele>350</ele>
        <time>2006-12-07T18:02:55Z</time>
      </trkpt>
      <trkpt lat="43.21794" lon="1.98185">
        <ele>350</ele>
        <time>2006-12-07T18:02:55Z</time>
      </trkpt>
      <trkpt lat="43.21788" lon="1.982">
        <ele>351</ele>
        <time>2006-12-07T18:02:55Z</time>
      </trkpt>
      <trkpt lat="43.218" lon="1.98232">
        <ele>350</ele>
        <time>2006-12-07T18:02:55Z</time>
      </trkpt>
      <trkpt lat="43.21798" lon="1.98252">
        <ele>350</ele>
        <time>2006-12-07T18:02:55Z</time>
      </trkpt>
      <trkpt lat="43.21777" lon="1.98318">
        <ele>352</ele>
        <time>2006-12-07T18:02:55Z</time>
      </trkpt>
      <trkpt lat="43.21758" lon="1.98348">
        <ele>352</ele>
        <time>2006-12-07T18:02:55Z</time>
      </trkpt>
      <trkpt lat="43.21721" lon="1.98411">
        <ele>355</ele>
        <time>2006-12-07T18:02:55Z</time>
      </trkpt>
      <trkpt lat="43.21719" lon="1.98423">
        <ele>354</ele>
        <time>2006-12-07T18:02:55Z</time>
      </trkpt>
      <trkpt lat="43.21751" lon="1.98479">
        <ele>349</ele>
        <time>2006-12-07T18:02:55Z</time>
      </trkpt>
      <trkpt lat="43.21747" lon="1.98554">
        <ele>338</ele>
        <time>2006-12-07T18:02:55Z</time>
      </trkpt>
      <trkpt lat="43.21805" lon="1.98689">
        <ele>321</ele>
        <time>2006-12-07T18:02:55Z</time>
      </trkpt>
      <trkpt lat="43.21809" lon="1.9873">
        <ele>318</ele>
        <time>2006-12-07T18:02:55Z</time>
      </trkpt>
      <trkpt lat="43.21796" lon="1.98807">
        <ele>313</ele>
        <time>2006-12-07T18:02:55Z</time>
      </trkpt>
      <trkpt lat="43.21792" lon="1.98885">
        <ele>305</ele>
        <time>2006-12-07T18:02:55Z</time>
      </trkpt>
      <trkpt lat="43.21777" lon="1.98953">
        <ele>297</ele>
        <time>2006-12-07T18:02:55Z</time>
      </trkpt>
      <trkpt lat="43.21758" lon="1.99028">
        <ele>286</ele>
        <time>2006-12-07T18:02:55Z</time>
      </trkpt>
      <trkpt lat="43.21755" lon="1.99179">
        <ele>278</ele>
        <time>2006-12-07T18:02:55Z</time>
      </trkpt>
      <trkpt lat="43.21745" lon="1.9925">
        <ele>277</ele>
        <time>2006-12-07T18:02:55Z</time>
      </trkpt>
      <trkpt lat="43.21667" lon="1.99402">
        <ele>266</ele>
        <time>2006-12-07T18:02:55Z</time>
      </trkpt>
      <trkpt lat="43.21627" lon="1.99507">
        <ele>257</ele>
        <time>2006-12-07T18:02:55Z</time>
      </trkpt>
      <trkpt lat="43.21627" lon="1.99526">
        <ele>257</ele>
        <time>2006-12-07T18:02:55Z</time>
      </trkpt>
      <trkpt lat="43.21562" lon="1.99638">
        <ele>258</ele>
        <time>2006-12-07T18:02:55Z</time>
      </trkpt>
      <trkpt lat="43.21519" lon="1.99653">
        <ele>254</ele>
        <time>2006-12-07T18:02:55Z</time>
      </trkpt>
      <trkpt lat="43.215" lon="1.99677">
        <ele>250</ele>
        <time>2006-12-07T18:02:55Z</time>
      </trkpt>
      <trkpt lat="43.21479" lon="1.99743">
        <ele>246</ele>
        <time>2006-12-07T18:02:55Z</time>
      </trkpt>
      <trkpt lat="43.21464" lon="1.99743">
        <ele>244</ele>
        <time>2006-12-07T18:02:55Z</time>
      </trkpt>
      <trkpt lat="43.21285" lon="1.99646">
        <ele>270</ele>
        <time>2006-12-07T18:02:55Z</time>
      </trkpt>
      <trkpt lat="43.21206" lon="1.99923">
        <ele>269</ele>
        <time>2006-12-07T18:02:55Z</time>
      </trkpt>
      <trkpt lat="43.2117" lon="2.00022">
        <ele>271</ele>
        <time>2006-12-07T18:02:55Z</time>
      </trkpt>
      <trkpt lat="43.21135" lon="2.00095">
        <ele>274</ele>
        <time>2006-12-07T18:02:55Z</time>
      </trkpt>
      <trkpt lat="43.21024" lon="2.00357">
        <ele>279</ele>
        <time>2006-12-07T18:02:55Z</time>
      </trkpt>
      <trkpt lat="43.20979" lon="2.00434">
        <ele>278</ele>
        <time>2006-12-07T18:02:55Z</time>
      </trkpt>
      <trkpt lat="43.20927" lon="2.00507">
        <ele>278</ele>
        <time>2006-12-07T18:02:55Z</time>
      </trkpt>
      <trkpt lat="43.20882" lon="2.00621">
        <ele>280</ele>
        <time>2006-12-07T18:02:55Z</time>
      </trkpt>
      <trkpt lat="43.20876" lon="2.00653">
        <ele>280</ele>
        <time>2006-12-07T18:02:55Z</time>
      </trkpt>
      <trkpt lat="43.20959" lon="2.00745">
        <ele>272</ele>
        <time>2006-12-07T18:02:55Z</time>
      </trkpt>
      <trkpt lat="43.21024" lon="2.00801">
        <ele>268</ele>
        <time>2006-12-07T18:02:55Z</time>
      </trkpt>
      <trkpt lat="43.21079" lon="2.00878">
        <ele>264</ele>
        <time>2006-12-07T18:02:55Z</time>
      </trkpt>
      <trkpt lat="43.21092" lon="2.00872">
        <ele>264</ele>
        <time>2006-12-07T18:02:55Z</time>
      </trkpt>
      <trkpt lat="43.2112" lon="2.00816">
        <ele>265</ele>
        <time>2006-12-07T18:02:55Z</time>
      </trkpt>
      <trkpt lat="43.21133" lon="2.00803">
        <ele>265</ele>
        <time>2006-12-07T18:02:55Z</time>
      </trkpt>
      <trkpt lat="43.21146" lon="2.00812">
        <ele>267</ele>
        <time>2006-12-07T18:02:55Z</time>
      </trkpt>
      <trkpt lat="43.21238" lon="2.00964">
        <ele>272</ele>
        <time>2006-12-07T18:02:55Z</time>
      </trkpt>
      <trkpt lat="43.21296" lon="2.00975">
        <ele>269</ele>
        <time>2006-12-07T18:02:55Z</time>
      </trkpt>
      <trkpt lat="43.21427" lon="2.01018">
        <ele>274</ele>
        <time>2006-12-07T18:02:55Z</time>
      </trkpt>
      <trkpt lat="43.21427" lon="2.01056">
        <ele>272</ele>
        <time>2006-12-07T18:02:55Z</time>
      </trkpt>
      <trkpt lat="43.21444" lon="2.01069">
        <ele>271</ele>
        <time>2006-12-07T18:02:55Z</time>
      </trkpt>
      <trkpt lat="43.21455" lon="2.01069">
        <ele>272</ele>
        <time>2006-12-07T18:02:55Z</time>
      </trkpt>
      <trkpt lat="43.21494" lon="2.0111">
        <ele>270</ele>
        <time>2006-12-07T18:02:55Z</time>
      </trkpt>
      <trkpt lat="43.21504" lon="2.01114">
        <ele>271</ele>
        <time>2006-12-07T18:02:55Z</time>
      </trkpt>
      <trkpt lat="43.21522" lon="2.01116">
        <ele>270</ele>
        <time>2006-12-07T18:02:55Z</time>
      </trkpt>
      <trkpt lat="43.21537" lon="2.01142">
        <ele>264</ele>
        <time>2006-12-07T18:02:55Z</time>
      </trkpt>
      <trkpt lat="43.21552" lon="2.01151">
        <ele>265</ele>
        <time>2006-12-07T18:02:55Z</time>
      </trkpt>
      <trkpt lat="43.2159" lon="2.01194">
        <ele>265</ele>
        <time>2006-12-07T18:02:55Z</time>
      </trkpt>
      <trkpt lat="43.21631" lon="2.01243">
        <ele>268</ele>
        <time>2006-12-07T18:02:55Z</time>
      </trkpt>
      <trkpt lat="43.21644" lon="2.01267">
        <ele>271</ele>
        <time>2006-12-07T18:02:55Z</time>
      </trkpt>
      <trkpt lat="43.21652" lon="2.01284">
        <ele>268</ele>
        <time>2006-12-07T18:02:55Z</time>
      </trkpt>
      <trkpt lat="43.21655" lon="2.01329">
        <ele>260</ele>
        <time>2006-12-07T18:02:55Z</time>
      </trkpt>
      <trkpt lat="43.21644" lon="2.0137">
        <ele>250</ele>
        <time>2006-12-07T18:02:55Z</time>
      </trkpt>
      <trkpt lat="43.21659" lon="2.01417">
        <ele>240</ele>
        <time>2006-12-07T18:02:55Z</time>
      </trkpt>
      <trkpt lat="43.21657" lon="2.01425">
        <ele>239</ele>
        <time>2006-12-07T18:02:55Z</time>
      </trkpt>
      <trkpt lat="43.21659" lon="2.01434">
        <ele>237</ele>
        <time>2006-12-07T18:02:55Z</time>
      </trkpt>
      <trkpt lat="43.2165" lon="2.01447">
        <ele>234</ele>
        <time>2006-12-07T18:02:55Z</time>
      </trkpt>
      <trkpt lat="43.21655" lon="2.0146">
        <ele>233</ele>
        <time>2006-12-07T18:02:55Z</time>
      </trkpt>
      <trkpt lat="43.21657" lon="2.01483">
        <ele>230</ele>
        <time>2006-12-07T18:02:55Z</time>
      </trkpt>
      <trkpt lat="43.21648" lon="2.01494">
        <ele>229</ele>
        <time>2006-12-07T18:02:55Z</time>
      </trkpt>
      <trkpt lat="43.21642" lon="2.015">
        <ele>228</ele>
        <time>2006-12-07T18:02:55Z</time>
      </trkpt>
      <trkpt lat="43.21631" lon="2.01535">
        <ele>225</ele>
        <time>2006-12-07T18:02:55Z</time>
      </trkpt>
      <trkpt lat="43.21622" lon="2.01616">
        <ele>219</ele>
        <time>2006-12-07T18:02:55Z</time>
      </trkpt>
      <trkpt lat="43.21625" lon="2.0176">
        <ele>209</ele>
        <time>2006-12-07T18:02:55Z</time>
      </trkpt>
      <trkpt lat="43.21625" lon="2.01799">
        <ele>206</ele>
        <time>2006-12-07T18:02:55Z</time>
      </trkpt>
      <trkpt lat="43.21597" lon="2.01788">
        <ele>205</ele>
        <time>2006-12-07T18:02:55Z</time>
      </trkpt>
      <trkpt lat="43.21543" lon="2.01805">
        <ele>210</ele>
        <time>2006-12-07T18:02:55Z</time>
      </trkpt>
      <trkpt lat="43.21468" lon="2.01867">
        <ele>215</ele>
        <time>2006-12-07T18:02:55Z</time>
      </trkpt>
      <trkpt lat="43.21455" lon="2.01885">
        <ele>216</ele>
        <time>2006-12-07T18:02:55Z</time>
      </trkpt>
      <trkpt lat="43.21444" lon="2.01887">
        <ele>217</ele>
        <time>2006-12-07T18:02:55Z</time>
      </trkpt>
      <trkpt lat="43.21365" lon="2.01859">
        <ele>222</ele>
        <time>2006-12-07T18:02:55Z</time>
      </trkpt>
      <trkpt lat="43.21316" lon="2.01829">
        <ele>224</ele>
        <time>2006-12-07T18:02:55Z</time>
      </trkpt>
      <trkpt lat="43.2127" lon="2.01812">
        <ele>227</ele>
        <time>2006-12-07T18:02:55Z</time>
      </trkpt>
      <trkpt lat="43.21251" lon="2.01822">
        <ele>228</ele>
        <time>2006-12-07T18:02:55Z</time>
      </trkpt>
      <trkpt lat="43.21217" lon="2.01887">
        <ele>233</ele>
        <time>2006-12-07T18:02:55Z</time>
      </trkpt>
      <trkpt lat="43.21198" lon="2.0199">
        <ele>241</ele>
        <time>2006-12-07T18:02:55Z</time>
      </trkpt>
      <trkpt lat="43.21157" lon="2.02054">
        <ele>247</ele>
        <time>2006-12-07T18:02:55Z</time>
      </trkpt>
      <trkpt lat="43.21135" lon="2.02103">
        <ele>253</ele>
        <time>2006-12-07T18:02:55Z</time>
      </trkpt>
      <trkpt lat="43.21071" lon="2.02178">
        <ele>266</ele>
        <time>2006-12-07T18:02:55Z</time>
      </trkpt>
      <trkpt lat="43.21004" lon="2.02234">
        <ele>280</ele>
        <time>2006-12-07T18:02:55Z</time>
      </trkpt>
      <trkpt lat="43.20983" lon="2.0226">
        <ele>285</ele>
        <time>2006-12-07T18:02:55Z</time>
      </trkpt>
      <trkpt lat="43.20951" lon="2.02314">
        <ele>294</ele>
        <time>2006-12-07T18:02:55Z</time>
      </trkpt>
      <trkpt lat="43.20949" lon="2.02324">
        <ele>295</ele>
        <time>2006-12-07T18:02:55Z</time>
      </trkpt>
      <trkpt lat="43.20955" lon="2.02337">
        <ele>297</ele>
        <time>2006-12-07T18:02:55Z</time>
      </trkpt>
      <trkpt lat="43.20951" lon="2.02348">
        <ele>298</ele>
        <time>2006-12-07T18:02:55Z</time>
      </trkpt>
      <trkpt lat="43.2091" lon="2.02361">
        <ele>302</ele>
        <time>2006-12-07T18:02:55Z</time>
      </trkpt>
      <trkpt lat="43.20904" lon="2.02376">
        <ele>305</ele>
        <time>2006-12-07T18:02:55Z</time>
      </trkpt>
      <trkpt lat="43.2088" lon="2.02387">
        <ele>313</ele>
        <time>2006-12-07T18:02:55Z</time>
      </trkpt>
      <trkpt lat="43.20863" lon="2.02404">
        <ele>314</ele>
        <time>2006-12-07T18:02:55Z</time>
      </trkpt>
      <trkpt lat="43.20831" lon="2.02402">
        <ele>315</ele>
        <time>2006-12-07T18:02:55Z</time>
      </trkpt>
      <trkpt lat="43.20777" lon="2.02515">
        <ele>319</ele>
        <time>2006-12-07T18:02:55Z</time>
      </trkpt>
      <trkpt lat="43.20751" lon="2.02556">
        <ele>320</ele>
        <time>2006-12-07T18:02:55Z</time>
      </trkpt>
      <trkpt lat="43.20719" lon="2.02621">
        <ele>321</ele>
        <time>2006-12-07T18:02:55Z</time>
      </trkpt>
      <trkpt lat="43.20702" lon="2.02638">
        <ele>321</ele>
        <time>2006-12-07T18:02:55Z</time>
      </trkpt>
      <trkpt lat="43.20695" lon="2.02668">
        <ele>321</ele>
        <time>2006-12-07T18:02:55Z</time>
      </trkpt>
      <trkpt lat="43.207" lon="2.02693">
        <ele>317</ele>
        <time>2006-12-07T18:02:55Z</time>
      </trkpt>
      <trkpt lat="43.2071" lon="2.02715">
        <ele>314</ele>
        <time>2006-12-07T18:02:55Z</time>
      </trkpt>
      <trkpt lat="43.20777" lon="2.02811">
        <ele>297</ele>
        <time>2006-12-07T18:02:55Z</time>
      </trkpt>
      <trkpt lat="43.20794" lon="2.02801">
        <ele>294</ele>
        <time>2006-12-07T18:02:55Z</time>
      </trkpt>
      <trkpt lat="43.20835" lon="2.02741">
        <ele>284</ele>
        <time>2006-12-07T18:02:55Z</time>
      </trkpt>
      <trkpt lat="43.20912" lon="2.02698">
        <ele>271</ele>
        <time>2006-12-07T18:02:55Z</time>
      </trkpt>
      <trkpt lat="43.20974" lon="2.02674">
        <ele>263</ele>
        <time>2006-12-07T18:02:55Z</time>
      </trkpt>
      <trkpt lat="43.21015" lon="2.02648">
        <ele>262</ele>
        <time>2006-12-07T18:02:55Z</time>
      </trkpt>
      <trkpt lat="43.21064" lon="2.02644">
        <ele>261</ele>
        <time>2006-12-07T18:02:55Z</time>
      </trkpt>
      <trkpt lat="43.2106" lon="2.02657">
        <ele>262</ele>
        <time>2006-12-07T18:02:55Z</time>
      </trkpt>
      <trkpt lat="43.21062" lon="2.02687">
        <ele>264</ele>
        <time>2006-12-07T18:02:55Z</time>
      </trkpt>
      <trkpt lat="43.2103" lon="2.02771">
        <ele>272</ele>
        <time>2006-12-07T18:02:55Z</time>
      </trkpt>
      <trkpt lat="43.20961" lon="2.02887">
        <ele>271</ele>
        <time>2006-12-07T18:02:55Z</time>
      </trkpt>
      <trkpt lat="43.20955" lon="2.02917">
        <ele>269</ele>
        <time>2006-12-07T18:02:55Z</time>
      </trkpt>
      <trkpt lat="43.20944" lon="2.02923">
        <ele>268</ele>
        <time>2006-12-07T18:02:55Z</time>
      </trkpt>
      <trkpt lat="43.2088" lon="2.02979">
        <ele>264</ele>
        <time>2006-12-07T18:02:55Z</time>
      </trkpt>
      <trkpt lat="43.20828" lon="2.02962">
        <ele>275</ele>
        <time>2006-12-07T18:02:55Z</time>
      </trkpt>
      <trkpt lat="43.20813" lon="2.02977">
        <ele>274</ele>
        <time>2006-12-07T18:02:55Z</time>
      </trkpt>
      <trkpt lat="43.20801" lon="2.03017">
        <ele>267</ele>
        <time>2006-12-07T18:02:55Z</time>
      </trkpt>
      <trkpt lat="43.2079" lon="2.03054">
        <ele>264</ele>
        <time>2006-12-07T18:02:55Z</time>
      </trkpt>
      <trkpt lat="43.20775" lon="2.03078">
        <ele>262</ele>
        <time>2006-12-07T18:02:55Z</time>
      </trkpt>
      <trkpt lat="43.20758" lon="2.03118">
        <ele>258</ele>
        <time>2006-12-07T18:02:55Z</time>
      </trkpt>
      <trkpt lat="43.20713" lon="2.03234">
        <ele>247</ele>
        <time>2006-12-07T18:02:55Z</time>
      </trkpt>
      <trkpt lat="43.207" lon="2.03307">
        <ele>239</ele>
        <time>2006-12-07T18:02:55Z</time>
      </trkpt>
      <trkpt lat="43.20616" lon="2.03286">
        <ele>232</ele>
        <time>2006-12-07T18:02:55Z</time>
      </trkpt>
      <trkpt lat="43.20607" lon="2.03284">
        <ele>231</ele>
        <time>2006-12-07T18:02:55Z</time>
      </trkpt>
      <trkpt lat="43.20584" lon="2.03299">
        <ele>228</ele>
        <time>2006-12-07T18:02:55Z</time>
      </trkpt>
      <trkpt lat="43.20477" lon="2.03384">
        <ele>221</ele>
        <time>2006-12-07T18:02:55Z</time>
      </trkpt>
      <trkpt lat="43.20416" lon="2.03414">
        <ele>216</ele>
        <time>2006-12-07T18:02:55Z</time>
      </trkpt>
      <trkpt lat="43.20399" lon="2.0341">
        <ele>215</ele>
        <time>2006-12-07T18:02:55Z</time>
      </trkpt>
      <trkpt lat="43.20341" lon="2.03354">
        <ele>209</ele>
        <time>2006-12-07T18:02:55Z</time>
      </trkpt>
      <trkpt lat="43.20266" lon="2.03333">
        <ele>202</ele>
        <time>2006-12-07T18:02:55Z</time>
      </trkpt>
      <trkpt lat="43.20193" lon="2.03372">
        <ele>196</ele>
        <time>2006-12-07T18:02:55Z</time>
      </trkpt>
      <trkpt lat="43.20084" lon="2.03391">
        <ele>192</ele>
        <time>2006-12-07T18:02:55Z</time>
      </trkpt>
      <trkpt lat="43.20041" lon="2.03369">
        <ele>195</ele>
        <time>2006-12-07T18:02:55Z</time>
      </trkpt>
      <trkpt lat="43.20013" lon="2.03363">
        <ele>198</ele>
        <time>2006-12-07T18:02:55Z</time>
      </trkpt>
      <trkpt lat="43.19964" lon="2.03374">
        <ele>205</ele>
        <time>2006-12-07T18:02:55Z</time>
      </trkpt>
      <trkpt lat="43.19925" lon="2.03382">
        <ele>208</ele>
        <time>2006-12-07T18:02:55Z</time>
      </trkpt>
      <trkpt lat="43.19891" lon="2.03402">
        <ele>211</ele>
        <time>2006-12-07T18:02:55Z</time>
      </trkpt>
      <trkpt lat="43.19779" lon="2.03444">
        <ele>221</ele>
        <time>2006-12-07T18:02:55Z</time>
      </trkpt>
      <trkpt lat="43.19753" lon="2.03468">
        <ele>224</ele>
        <time>2006-12-07T18:02:55Z</time>
      </trkpt>
      <trkpt lat="43.1973" lon="2.03509">
        <ele>229</ele>
        <time>2006-12-07T18:02:55Z</time>
      </trkpt>
      <trkpt lat="43.19653" lon="2.03545">
        <ele>240</ele>
        <time>2006-12-07T18:02:55Z</time>
      </trkpt>
      <trkpt lat="43.19642" lon="2.03552">
        <ele>242</ele>
        <time>2006-12-07T18:02:55Z</time>
      </trkpt>
      <trkpt lat="43.19625" lon="2.0358">
        <ele>247</ele>
        <time>2006-12-07T18:02:55Z</time>
      </trkpt>
      <trkpt lat="43.19597" lon="2.03588">
        <ele>249</ele>
        <time>2006-12-07T18:02:55Z</time>
      </trkpt>
      <trkpt lat="43.19547" lon="2.0362">
        <ele>249</ele>
        <time>2006-12-07T18:02:55Z</time>
      </trkpt>
      <trkpt lat="43.19453" lon="2.03603">
        <ele>250</ele>
        <time>2006-12-07T18:02:55Z</time>
      </trkpt>
      <trkpt lat="43.19425" lon="2.03605">
        <ele>249</ele>
        <time>2006-12-07T18:02:55Z</time>
      </trkpt>
      <trkpt lat="43.1935" lon="2.03644">
        <ele>252</ele>
        <time>2006-12-07T18:02:55Z</time>
      </trkpt>
      <trkpt lat="43.19299" lon="2.03687">
        <ele>257</ele>
        <time>2006-12-07T18:02:55Z</time>
      </trkpt>
      <trkpt lat="43.19273" lon="2.03685">
        <ele>261</ele>
        <time>2006-12-07T18:02:55Z</time>
      </trkpt>
      <trkpt lat="43.19249" lon="2.03685">
        <ele>264</ele>
        <time>2006-12-07T18:02:55Z</time>
      </trkpt>
      <trkpt lat="43.19238" lon="2.03676">
        <ele>266</ele>
        <time>2006-12-07T18:02:55Z</time>
      </trkpt>
      <trkpt lat="43.19234" lon="2.03665">
        <ele>269</ele>
        <time>2006-12-07T18:02:55Z</time>
      </trkpt>
      <trkpt lat="43.19238" lon="2.0364">
        <ele>271</ele>
        <time>2006-12-07T18:02:55Z</time>
      </trkpt>
      <trkpt lat="43.19234" lon="2.03586">
        <ele>275</ele>
        <time>2006-12-07T18:02:55Z</time>
      </trkpt>
      <trkpt lat="43.19211" lon="2.03547">
        <ele>277</ele>
        <time>2006-12-07T18:02:55Z</time>
      </trkpt>
      <trkpt lat="43.19196" lon="2.03528">
        <ele>279</ele>
        <time>2006-12-07T18:02:55Z</time>
      </trkpt>
      <trkpt lat="43.19135" lon="2.03509">
        <ele>281</ele>
        <time>2006-12-07T18:02:55Z</time>
      </trkpt>
      <trkpt lat="43.19112" lon="2.03494">
        <ele>282</ele>
        <time>2006-12-07T18:02:55Z</time>
      </trkpt>
      <trkpt lat="43.19082" lon="2.0346">
        <ele>283</ele>
        <time>2006-12-07T18:02:55Z</time>
      </trkpt>
      <trkpt lat="43.19073" lon="2.0344">
        <ele>284</ele>
        <time>2006-12-07T18:02:55Z</time>
      </trkpt>
      <trkpt lat="43.19071" lon="2.03412">
        <ele>284</ele>
        <time>2006-12-07T18:02:55Z</time>
      </trkpt>
      <trkpt lat="43.19082" lon="2.03378">
        <ele>286</ele>
        <time>2006-12-07T18:02:55Z</time>
      </trkpt>
      <trkpt lat="43.19135" lon="2.03301">
        <ele>289</ele>
        <time>2006-12-07T18:02:55Z</time>
      </trkpt>
      <trkpt lat="43.19213" lon="2.03103">
        <ele>294</ele>
        <time>2006-12-07T18:02:55Z</time>
      </trkpt>
      <trkpt lat="43.19223" lon="2.03063">
        <ele>295</ele>
        <time>2006-12-07T18:02:55Z</time>
      </trkpt>
      <trkpt lat="43.19223" lon="2.03024">
        <ele>297</ele>
        <time>2006-12-07T18:02:55Z</time>
      </trkpt>
      <trkpt lat="43.19215" lon="2.02998">
        <ele>298</ele>
        <time>2006-12-07T18:02:55Z</time>
      </trkpt>
      <trkpt lat="43.19204" lon="2.02985">
        <ele>298</ele>
        <time>2006-12-07T18:02:55Z</time>
      </trkpt>
      <trkpt lat="43.19185" lon="2.02966">
        <ele>299</ele>
        <time>2006-12-07T18:02:55Z</time>
      </trkpt>
      <trkpt lat="43.19157" lon="2.02955">
        <ele>301</ele>
        <time>2006-12-07T18:02:55Z</time>
      </trkpt>
      <trkpt lat="43.1912" lon="2.0297">
        <ele>302</ele>
        <time>2006-12-07T18:02:55Z</time>
      </trkpt>
      <trkpt lat="43.19084" lon="2.03002">
        <ele>304</ele>
        <time>2006-12-07T18:02:55Z</time>
      </trkpt>
      <trkpt lat="43.19052" lon="2.0302">
        <ele>305</ele>
        <time>2006-12-07T18:02:55Z</time>
      </trkpt>
      <trkpt lat="43.1902" lon="2.03013">
        <ele>306</ele>
        <time>2006-12-07T18:02:55Z</time>
      </trkpt>
      <trkpt lat="43.18994" lon="2.02987">
        <ele>307</ele>
        <time>2006-12-07T18:02:55Z</time>
      </trkpt>
      <trkpt lat="43.18979" lon="2.02945">
        <ele>308</ele>
        <time>2006-12-07T18:02:55Z</time>
      </trkpt>
      <trkpt lat="43.18979" lon="2.02917">
        <ele>309</ele>
        <time>2006-12-07T18:02:55Z</time>
      </trkpt>
      <trkpt lat="43.18994" lon="2.0285">
        <ele>312</ele>
        <time>2006-12-07T18:02:55Z</time>
      </trkpt>
      <trkpt lat="43.18998" lon="2.02794">
        <ele>314</ele>
        <time>2006-12-07T18:02:55Z</time>
      </trkpt>
      <trkpt lat="43.18985" lon="2.02751">
        <ele>315</ele>
        <time>2006-12-07T18:02:55Z</time>
      </trkpt>
      <trkpt lat="43.18944" lon="2.02704">
        <ele>315</ele>
        <time>2006-12-07T18:02:55Z</time>
      </trkpt>
      <trkpt lat="43.18927" lon="2.02674">
        <ele>319</ele>
        <time>2006-12-07T18:02:55Z</time>
      </trkpt>
      <trkpt lat="43.18934" lon="2.02642">
        <ele>317</ele>
        <time>2006-12-07T18:02:55Z</time>
      </trkpt>
      <trkpt lat="43.18951" lon="2.02558">
        <ele>314</ele>
        <time>2006-12-07T18:02:55Z</time>
      </trkpt>
      <trkpt lat="43.18957" lon="2.02498">
        <ele>312</ele>
        <time>2006-12-07T18:02:55Z</time>
      </trkpt>
      <trkpt lat="43.18944" lon="2.02415">
        <ele>311</ele>
        <time>2006-12-07T18:02:55Z</time>
      </trkpt>
      <trkpt lat="43.18927" lon="2.02389">
        <ele>313</ele>
        <time>2006-12-07T18:02:55Z</time>
      </trkpt>
      <trkpt lat="43.18923" lon="2.0235">
        <ele>315</ele>
        <time>2006-12-07T18:02:55Z</time>
      </trkpt>
      <trkpt lat="43.18942" lon="2.02251">
        <ele>313</ele>
        <time>2006-12-07T18:02:55Z</time>
      </trkpt>
      <trkpt lat="43.18938" lon="2.0214">
        <ele>308</ele>
        <time>2006-12-07T18:02:55Z</time>
      </trkpt>
      <trkpt lat="43.18951" lon="2.02056">
        <ele>305</ele>
        <time>2006-12-07T18:02:55Z</time>
      </trkpt>
      <trkpt lat="43.18966" lon="2.02009">
        <ele>307</ele>
        <time>2006-12-07T18:02:55Z</time>
      </trkpt>
      <trkpt lat="43.1899" lon="2.01968">
        <ele>310</ele>
        <time>2006-12-07T18:02:55Z</time>
      </trkpt>
      <trkpt lat="43.19022" lon="2.0188">
        <ele>312</ele>
        <time>2006-12-07T18:02:55Z</time>
      </trkpt>
      <trkpt lat="43.19028" lon="2.01869">
        <ele>312</ele>
        <time>2006-12-07T18:02:55Z</time>
      </trkpt>
      <trkpt lat="43.19022" lon="2.01852">
        <ele>314</ele>
        <time>2006-12-07T18:02:55Z</time>
      </trkpt>
      <trkpt lat="43.19024" lon="2.01829">
        <ele>315</ele>
        <time>2006-12-07T18:02:55Z</time>
      </trkpt>
      <trkpt lat="43.19052" lon="2.01803">
        <ele>313</ele>
        <time>2006-12-07T18:02:55Z</time>
      </trkpt>
      <trkpt lat="43.19084" lon="2.01758">
        <ele>311</ele>
        <time>2006-12-07T18:02:55Z</time>
      </trkpt>
      <trkpt lat="43.19193" lon="2.01567">
        <ele>297</ele>
        <time>2006-12-07T18:02:55Z</time>
      </trkpt>
      <trkpt lat="43.192" lon="2.01543">
        <ele>297</ele>
        <time>2006-12-07T18:02:55Z</time>
      </trkpt>
      <trkpt lat="43.19243" lon="2.01503">
        <ele>293</ele>
        <time>2006-12-07T18:02:55Z</time>
      </trkpt>
      <trkpt lat="43.19266" lon="2.01494">
        <ele>292</ele>
        <time>2006-12-07T18:02:55Z</time>
      </trkpt>
      <trkpt lat="43.19382" lon="2.0138">
        <ele>284</ele>
        <time>2006-12-07T18:02:55Z</time>
      </trkpt>
      <trkpt lat="43.19455" lon="2.01348">
        <ele>280</ele>
        <time>2006-12-07T18:02:55Z</time>
      </trkpt>
      <trkpt lat="43.195" lon="2.01318">
        <ele>275</ele>
        <time>2006-12-07T18:02:55Z</time>
      </trkpt>
      <trkpt lat="43.1952" lon="2.01221">
        <ele>254</ele>
        <time>2006-12-07T18:02:55Z</time>
      </trkpt>
      <trkpt lat="43.19537" lon="2.01189">
        <ele>246</ele>
        <time>2006-12-07T18:02:55Z</time>
      </trkpt>
      <trkpt lat="43.1955" lon="2.01146">
        <ele>239</ele>
        <time>2006-12-07T18:02:55Z</time>
      </trkpt>
      <trkpt lat="43.19545" lon="2.01101">
        <ele>232</ele>
        <time>2006-12-07T18:02:55Z</time>
      </trkpt>
      <trkpt lat="43.19592" lon="2.0105">
        <ele>231</ele>
        <time>2006-12-07T18:02:55Z</time>
      </trkpt>
      <trkpt lat="43.1965" lon="2.01009">
        <ele>224</ele>
        <time>2006-12-07T18:02:55Z</time>
      </trkpt>
      <trkpt lat="43.19676" lon="2.01018">
        <ele>224</ele>
        <time>2006-12-07T18:02:55Z</time>
      </trkpt>
      <trkpt lat="43.19698" lon="2.01039">
        <ele>224</ele>
        <time>2006-12-07T18:02:55Z</time>
      </trkpt>
      <trkpt lat="43.19715" lon="2.01035">
        <ele>222</ele>
        <time>2006-12-07T18:02:55Z</time>
      </trkpt>
      <trkpt lat="43.19726" lon="2.01022">
        <ele>225</ele>
        <time>2006-12-07T18:02:55Z</time>
      </trkpt>
      <trkpt lat="43.19719" lon="2.01013">
        <ele>226</ele>
        <time>2006-12-07T18:02:55Z</time>
      </trkpt>
      <trkpt lat="43.1971" lon="2.00874">
        <ele>247</ele>
        <time>2006-12-07T18:02:55Z</time>
      </trkpt>
      <trkpt lat="43.19715" lon="2.00848">
        <ele>250</ele>
        <time>2006-12-07T18:02:55Z</time>
      </trkpt>
      <trkpt lat="43.1971" lon="2.00844">
        <ele>250</ele>
        <time>2006-12-07T18:02:55Z</time>
      </trkpt>
      <trkpt lat="43.19704" lon="2.00865">
        <ele>252</ele>
        <time>2006-12-07T18:02:55Z</time>
      </trkpt>
      <trkpt lat="43.19693" lon="2.00878">
        <ele>253</ele>
        <time>2006-12-07T18:02:55Z</time>
      </trkpt>
      <trkpt lat="43.19676" lon="2.00874">
        <ele>253</ele>
        <time>2006-12-07T18:02:55Z</time>
      </trkpt>
      <trkpt lat="43.1967" lon="2.00852">
        <ele>255</ele>
        <time>2006-12-07T18:02:55Z</time>
      </trkpt>
      <trkpt lat="43.19676" lon="2.0082">
        <ele>260</ele>
        <time>2006-12-07T18:02:55Z</time>
      </trkpt>
      <trkpt lat="43.1967" lon="2.00739">
        <ele>265</ele>
        <time>2006-12-07T18:02:55Z</time>
      </trkpt>
      <trkpt lat="43.19661" lon="2.007">
        <ele>272</ele>
        <time>2006-12-07T18:02:55Z</time>
      </trkpt>
      <trkpt lat="43.1968" lon="2.00629">
        <ele>271</ele>
        <time>2006-12-07T18:02:55Z</time>
      </trkpt>
      <trkpt lat="43.1968" lon="2.00563">
        <ele>268</ele>
        <time>2006-12-07T18:02:55Z</time>
      </trkpt>
      <trkpt lat="43.19713" lon="2.00516">
        <ele>272</ele>
        <time>2006-12-07T18:02:55Z</time>
      </trkpt>
      <trkpt lat="43.19719" lon="2.00421">
        <ele>277</ele>
        <time>2006-12-07T18:02:55Z</time>
      </trkpt>
      <trkpt lat="43.19726" lon="2.00376">
        <ele>278</ele>
        <time>2006-12-07T18:02:55Z</time>
      </trkpt>
      <trkpt lat="43.19715" lon="2.00359">
        <ele>279</ele>
        <time>2006-12-07T18:02:55Z</time>
      </trkpt>
      <trkpt lat="43.19661" lon="2.00325">
        <ele>281</ele>
        <time>2006-12-07T18:02:55Z</time>
      </trkpt>
      <trkpt lat="43.19554" lon="2.00284">
        <ele>279</ele>
        <time>2006-12-07T18:02:55Z</time>
      </trkpt>
      <trkpt lat="43.1953" lon="2.00269">
        <ele>280</ele>
        <time>2006-12-07T18:02:55Z</time>
      </trkpt>
      <trkpt lat="43.19522" lon="2.00243">
        <ele>281</ele>
        <time>2006-12-07T18:02:55Z</time>
      </trkpt>
      <trkpt lat="43.19515" lon="2.00146">
        <ele>282</ele>
        <time>2006-12-07T18:02:55Z</time>
      </trkpt>
      <trkpt lat="43.19541" lon="2.00114">
        <ele>279</ele>
        <time>2006-12-07T18:02:55Z</time>
      </trkpt>
      <trkpt lat="43.19565" lon="2.00097">
        <ele>277</ele>
        <time>2006-12-07T18:02:55Z</time>
      </trkpt>
      <trkpt lat="43.19582" lon="2.00125">
        <ele>275</ele>
        <time>2006-12-07T18:02:55Z</time>
      </trkpt>
      <trkpt lat="43.19586" lon="2.00144">
        <ele>273</ele>
        <time>2006-12-07T18:02:55Z</time>
      </trkpt>
      <trkpt lat="43.19623" lon="2.00185">
        <ele>271</ele>
        <time>2006-12-07T18:02:55Z</time>
      </trkpt>
      <trkpt lat="43.19648" lon="2.00192">
        <ele>268</ele>
        <time>2006-12-07T18:02:55Z</time>
      </trkpt>
      <trkpt lat="43.19691" lon="2.00181">
        <ele>265</ele>
        <time>2006-12-07T18:02:55Z</time>
      </trkpt>
      <trkpt lat="43.19743" lon="2.00129">
        <ele>262</ele>
        <time>2006-12-07T18:02:55Z</time>
      </trkpt>
      <trkpt lat="43.19786" lon="2.00119">
        <ele>258</ele>
        <time>2006-12-07T18:02:55Z</time>
      </trkpt>
      <trkpt lat="43.19861" lon="2.00129">
        <ele>253</ele>
        <time>2006-12-07T18:02:55Z</time>
      </trkpt>
      <trkpt lat="43.19899" lon="2.00142">
        <ele>252</ele>
        <time>2006-12-07T18:02:55Z</time>
      </trkpt>
      <trkpt lat="43.19925" lon="2.00166">
        <ele>249</ele>
        <time>2006-12-07T18:02:55Z</time>
      </trkpt>
      <trkpt lat="43.20002" lon="2.00209">
        <ele>243</ele>
        <time>2006-12-07T18:02:55Z</time>
      </trkpt>
      <trkpt lat="43.2006" lon="2.00228">
        <ele>241</ele>
        <time>2006-12-07T18:02:55Z</time>
      </trkpt>
      <trkpt lat="43.20238" lon="2.00183">
        <ele>230</ele>
        <time>2006-12-07T18:02:55Z</time>
      </trkpt>
      <trkpt lat="43.20275" lon="2.00196">
        <ele>227</ele>
        <time>2006-12-07T18:02:55Z</time>
      </trkpt>
      <trkpt lat="43.20307" lon="2.0017">
        <ele>226</ele>
        <time>2006-12-07T18:02:55Z</time>
      </trkpt>
      <trkpt lat="43.2032" lon="2.00131">
        <ele>226</ele>
        <time>2006-12-07T18:02:55Z</time>
      </trkpt>
      <trkpt lat="43.20309" lon="1.99949">
        <ele>230</ele>
        <time>2006-12-07T18:02:55Z</time>
      </trkpt>
      <trkpt lat="43.20322" lon="1.99874">
        <ele>233</ele>
        <time>2006-12-07T18:02:55Z</time>
      </trkpt>
      <trkpt lat="43.20361" lon="1.99737">
        <ele>239</ele>
        <time>2006-12-07T18:02:55Z</time>
      </trkpt>
      <trkpt lat="43.20391" lon="1.99681">
        <ele>241</ele>
        <time>2006-12-07T18:02:55Z</time>
      </trkpt>
      <trkpt lat="43.20436" lon="1.99657">
        <ele>244</ele>
        <time>2006-12-07T18:02:55Z</time>
      </trkpt>
      <trkpt lat="43.20449" lon="1.99634">
        <ele>244</ele>
        <time>2006-12-07T18:02:55Z</time>
      </trkpt>
      <trkpt lat="43.2047" lon="1.99606">
        <ele>242</ele>
        <time>2006-12-07T18:02:55Z</time>
      </trkpt>
      <trkpt lat="43.20487" lon="1.99569">
        <ele>241</ele>
        <time>2006-12-07T18:02:55Z</time>
      </trkpt>
      <trkpt lat="43.20472" lon="1.99535">
        <ele>238</ele>
        <time>2006-12-07T18:02:55Z</time>
      </trkpt>
      <trkpt lat="43.20434" lon="1.99531">
        <ele>239</ele>
        <time>2006-12-07T18:02:55Z</time>
      </trkpt>
      <trkpt lat="43.20446" lon="1.99501">
        <ele>244</ele>
        <time>2006-12-07T18:02:55Z</time>
      </trkpt>
      <trkpt lat="43.20449" lon="1.99464">
        <ele>247</ele>
        <time>2006-12-07T18:02:55Z</time>
      </trkpt>
      <trkpt lat="43.20457" lon="1.99432">
        <ele>251</ele>
        <time>2006-12-07T18:02:55Z</time>
      </trkpt>
      <trkpt lat="43.20457" lon="1.99428">
        <ele>252</ele>
        <time>2006-12-07T18:02:55Z</time>
      </trkpt>
      <trkpt lat="43.20479" lon="1.99374">
        <ele>256</ele>
        <time>2006-12-07T18:02:55Z</time>
      </trkpt>
      <trkpt lat="43.20496" lon="1.99303">
        <ele>261</ele>
        <time>2006-12-07T18:02:55Z</time>
      </trkpt>
      <trkpt lat="43.20519" lon="1.99243">
        <ele>264</ele>
        <time>2006-12-07T18:02:55Z</time>
      </trkpt>
      <trkpt lat="43.20575" lon="1.99123">
        <ele>268</ele>
        <time>2006-12-07T18:02:55Z</time>
      </trkpt>
      <trkpt lat="43.20599" lon="1.99086">
        <ele>271</ele>
        <time>2006-12-07T18:02:55Z</time>
      </trkpt>
      <trkpt lat="43.2062" lon="1.99046">
        <ele>275</ele>
        <time>2006-12-07T18:02:55Z</time>
      </trkpt>
      <trkpt lat="43.20635" lon="1.98975">
        <ele>276</ele>
        <time>2006-12-07T18:02:55Z</time>
      </trkpt>
      <trkpt lat="43.20642" lon="1.9896">
        <ele>277</ele>
        <time>2006-12-07T18:02:55Z</time>
      </trkpt>
      <trkpt lat="43.20689" lon="1.98908">
        <ele>282</ele>
        <time>2006-12-07T18:02:55Z</time>
      </trkpt>
      <trkpt lat="43.20725" lon="1.98812">
        <ele>287</ele>
        <time>2006-12-07T18:02:55Z</time>
      </trkpt>
      <trkpt lat="43.20736" lon="1.9879">
        <ele>291</ele>
        <time>2006-12-07T18:02:55Z</time>
      </trkpt>
      <trkpt lat="43.20764" lon="1.98752">
        <ele>295</ele>
        <time>2006-12-07T18:02:55Z</time>
      </trkpt>
      <trkpt lat="43.20794" lon="1.98726">
        <ele>296</ele>
        <time>2006-12-07T18:02:55Z</time>
      </trkpt>
      <trkpt lat="43.20835" lon="1.98672">
        <ele>299</ele>
        <time>2006-12-07T18:02:55Z</time>
      </trkpt>
      <trkpt lat="43.20874" lon="1.98601">
        <ele>303</ele>
        <time>2006-12-07T18:02:55Z</time>
      </trkpt>
      <trkpt lat="43.20921" lon="1.98541">
        <ele>312</ele>
        <time>2006-12-07T18:02:55Z</time>
      </trkpt>
      <trkpt lat="43.20972" lon="1.98449">
        <ele>316</ele>
        <time>2006-12-07T18:02:55Z</time>
      </trkpt>
      <trkpt lat="43.20992" lon="1.98432">
        <ele>317</ele>
        <time>2006-12-07T18:02:55Z</time>
      </trkpt>
      <trkpt lat="43.21028" lon="1.98417">
        <ele>319</ele>
        <time>2006-12-07T18:02:55Z</time>
      </trkpt>
      <trkpt lat="43.21047" lon="1.98391">
        <ele>323</ele>
        <time>2006-12-07T18:02:55Z</time>
      </trkpt>
      <trkpt lat="43.21122" lon="1.98286">
        <ele>334</ele>
        <time>2006-12-07T18:02:55Z</time>
      </trkpt>
      <trkpt lat="43.21185" lon="1.9823">
        <ele>347</ele>
        <time>2006-12-07T18:02:55Z</time>
      </trkpt>
      <trkpt lat="43.2121" lon="1.98222">
        <ele>352</ele>
        <time>2006-12-07T18:02:55Z</time>
      </trkpt>
      <trkpt lat="43.21245" lon="1.98183">
        <ele>355</ele>
        <time>2006-12-07T18:02:55Z</time>
      </trkpt>
      <trkpt lat="43.21288" lon="1.98095">
        <ele>355</ele>
        <time>2006-12-07T18:02:55Z</time>
      </trkpt>
      <trkpt lat="43.21285" lon="1.98089">
        <ele>355</ele>
        <time>2006-12-07T18:02:55Z</time>
      </trkpt>
      <trkpt lat="43.21266" lon="1.98095">
        <ele>357</ele>
        <time>2006-12-07T18:02:55Z</time>
      </trkpt>
      <trkpt lat="43.21238" lon="1.98093">
        <ele>356</ele>
        <time>2006-12-07T18:02:55Z</time>
      </trkpt>
      <trkpt lat="43.21069" lon="1.97999">
        <ele>348</ele>
        <time>2006-12-07T18:02:55Z</time>
      </trkpt>
      <trkpt lat="43.21015" lon="1.97921">
        <ele>349</ele>
        <time>2006-12-07T18:02:55Z</time>
      </trkpt>
      <trkpt lat="43.20983" lon="1.97889">
        <ele>349</ele>
        <time>2006-12-07T18:02:55Z</time>
      </trkpt>
      <trkpt lat="43.20901" lon="1.97857">
        <ele>349</ele>
        <time>2006-12-07T18:02:55Z</time>
      </trkpt>
      <trkpt lat="43.20876" lon="1.97855">
        <ele>349</ele>
        <time>2006-12-07T18:02:55Z</time>
      </trkpt>
      <trkpt lat="43.20781" lon="1.97962">
        <ele>347</ele>
        <time>2006-12-07T18:02:55Z</time>
      </trkpt>
      <trkpt lat="43.20573" lon="1.97926">
        <ele>350</ele>
        <time>2006-12-07T18:02:55Z</time>
      </trkpt>
      <trkpt lat="43.20492" lon="1.98059">
        <ele>343</ele>
        <time>2006-12-07T18:02:55Z</time>
      </trkpt>
      <trkpt lat="43.20457" lon="1.98089">
        <ele>338</ele>
        <time>2006-12-07T18:02:55Z</time>
      </trkpt>
      <trkpt lat="43.20189" lon="1.98153">
        <ele>330</ele>
        <time>2006-12-07T18:02:55Z</time>
      </trkpt>
      <trkpt lat="43.20155" lon="1.98183">
        <ele>332</ele>
        <time>2006-12-07T18:02:55Z</time>
      </trkpt>
      <trkpt lat="43.20129" lon="1.98187">
        <ele>331</ele>
        <time>2006-12-07T18:02:55Z</time>
      </trkpt>
      <trkpt lat="43.20007" lon="1.98181">
        <ele>326</ele>
        <time>2006-12-07T18:02:55Z</time>
      </trkpt>
      <trkpt lat="43.19979" lon="1.98209">
        <ele>323</ele>
        <time>2006-12-07T18:02:55Z</time>
      </trkpt>
      <trkpt lat="43.1997" lon="1.98277">
        <ele>322</ele>
        <time>2006-12-07T18:02:55Z</time>
      </trkpt>
      <trkpt lat="43.19944" lon="1.98265">
        <ele>322</ele>
        <time>2006-12-07T18:02:55Z</time>
      </trkpt>
      <trkpt lat="43.19889" lon="1.98215">
        <ele>323</ele>
        <time>2006-12-07T18:02:55Z</time>
      </trkpt>
      <trkpt lat="43.19846" lon="1.98108">
        <ele>323</ele>
        <time>2006-12-07T18:02:55Z</time>
      </trkpt>
      <trkpt lat="43.19841" lon="1.98084">
        <ele>322</ele>
        <time>2006-12-07T18:02:55Z</time>
      </trkpt>
      <trkpt lat="43.19929" lon="1.98026">
        <ele>321</ele>
        <time>2006-12-07T18:02:55Z</time>
      </trkpt>
      <trkpt lat="43.19983" lon="1.97945">
        <ele>321</ele>
        <time>2006-12-07T18:02:55Z</time>
      </trkpt>
      <trkpt lat="43.20056" lon="1.97853">
        <ele>321</ele>
        <time>2006-12-07T18:02:55Z</time>
      </trkpt>
      <trkpt lat="43.20165" lon="1.97758">
        <ele>323</ele>
        <time>2006-12-07T18:02:55Z</time>
      </trkpt>
      <trkpt lat="43.20183" lon="1.97756">
        <ele>323</ele>
        <time>2006-12-07T18:02:55Z</time>
      </trkpt>
      <trkpt lat="43.20213" lon="1.97735">
        <ele>323</ele>
        <time>2006-12-07T18:02:55Z</time>
      </trkpt>
      <trkpt lat="43.20324" lon="1.97565">
        <ele>324</ele>
        <time>2006-12-07T18:02:55Z</time>
      </trkpt>
      <trkpt lat="43.20438" lon="1.97432">
        <ele>331</ele>
        <time>2006-12-07T18:02:55Z</time>
      </trkpt>
      <trkpt lat="43.20462" lon="1.97376">
        <ele>333</ele>
        <time>2006-12-07T18:02:55Z</time>
      </trkpt>
      <trkpt lat="43.20485" lon="1.97359">
        <ele>333</ele>
        <time>2006-12-07T18:02:55Z</time>
      </trkpt>
      <trkpt lat="43.20537" lon="1.97351">
        <ele>335</ele>
        <time>2006-12-07T18:02:55Z</time>
      </trkpt>
      <trkpt lat="43.2061" lon="1.97318">
        <ele>336</ele>
        <time>2006-12-07T18:02:55Z</time>
      </trkpt>
      <trkpt lat="43.20734" lon="1.97181">
        <ele>339</ele>
        <time>2006-12-07T18:02:55Z</time>
      </trkpt>
      <trkpt lat="43.20983" lon="1.96675">
        <ele>342</ele>
        <time>2006-12-07T18:02:55Z</time>
      </trkpt>
      <trkpt lat="43.21" lon="1.96634">
        <ele>340</ele>
        <time>2006-12-07T18:02:55Z</time>
      </trkpt>
      <trkpt lat="43.21054" lon="1.96428">
        <ele>336</ele>
        <time>2006-12-07T18:02:55Z</time>
      </trkpt>
      <trkpt lat="43.21202" lon="1.96213">
        <ele>346</ele>
        <time>2006-12-07T18:02:55Z</time>
      </trkpt>
      <trkpt lat="43.21208" lon="1.9619">
        <ele>347</ele>
        <time>2006-12-07T18:02:55Z</time>
      </trkpt>
      <trkpt lat="43.21202" lon="1.96123">
        <ele>347</ele>
        <time>2006-12-07T18:02:55Z</time>
      </trkpt>
      <trkpt lat="43.21213" lon="1.96029">
        <ele>347</ele>
        <time>2006-12-07T18:02:55Z</time>
      </trkpt>
      <trkpt lat="43.21255" lon="1.95763">
        <ele>356</ele>
        <time>2006-12-07T18:02:55Z</time>
      </trkpt>
      <trkpt lat="43.21268" lon="1.95745">
        <ele>357</ele>
        <time>2006-12-07T18:02:55Z</time>
      </trkpt>
      <trkpt lat="43.21292" lon="1.95743">
        <ele>361</ele>
        <time>2006-12-07T18:02:55Z</time>
      </trkpt>
      <trkpt lat="43.21309" lon="1.95748">
        <ele>364</ele>
        <time>2006-12-07T18:02:55Z</time>
      </trkpt>
      <trkpt lat="43.21326" lon="1.95776">
        <ele>366</ele>
        <time>2006-12-07T18:02:55Z</time>
      </trkpt>
      <trkpt lat="43.21337" lon="1.95859">
        <ele>372</ele>
        <time>2006-12-07T18:02:55Z</time>
      </trkpt>
      <trkpt lat="43.21328" lon="1.95926">
        <ele>373</ele>
        <time>2006-12-07T18:02:55Z</time>
      </trkpt>
      <trkpt lat="43.21341" lon="1.95941">
        <ele>374</ele>
        <time>2006-12-07T18:02:55Z</time>
      </trkpt>
      <trkpt lat="43.21361" lon="1.95939">
        <ele>376</ele>
        <time>2006-12-07T18:02:55Z</time>
      </trkpt>
      <trkpt lat="43.21378" lon="1.95926">
        <ele>378</ele>
        <time>2006-12-07T18:02:55Z</time>
      </trkpt>
      <trkpt lat="43.21393" lon="1.95889">
        <ele>380</ele>
        <time>2006-12-07T18:02:55Z</time>
      </trkpt>
      <trkpt lat="43.21406" lon="1.95808">
        <ele>383</ele>
        <time>2006-12-07T18:02:55Z</time>
      </trkpt>
      <trkpt lat="43.21515" lon="1.956">
        <ele>386</ele>
        <time>2006-12-07T18:02:55Z</time>
      </trkpt>
      <trkpt lat="43.21567" lon="1.95563">
        <ele>388</ele>
        <time>2006-12-07T18:02:55Z</time>
      </trkpt>
      <trkpt lat="43.21652" lon="1.95424">
        <ele>397</ele>
        <time>2006-12-07T18:02:55Z</time>
      </trkpt>
      <trkpt lat="43.21704" lon="1.95372">
        <ele>400</ele>
        <time>2006-12-07T18:02:55Z</time>
      </trkpt>
      <trkpt lat="43.21766" lon="1.95351">
        <ele>401</ele>
        <time>2006-12-07T18:02:55Z</time>
      </trkpt>
      <trkpt lat="43.21815" lon="1.95308">
        <ele>403</ele>
        <time>2006-12-07T18:02:55Z</time>
      </trkpt>
      <trkpt lat="43.22019" lon="1.951">
        <ele>404</ele>
        <time>2006-12-07T18:02:55Z</time>
      </trkpt>
      <trkpt lat="43.22071" lon="1.95027">
        <ele>406</ele>
        <time>2006-12-07T18:02:55Z</time>
      </trkpt>
      <trkpt lat="43.22094" lon="1.94947">
        <ele>404</ele>
        <time>2006-12-07T18:02:55Z</time>
      </trkpt>
      <trkpt lat="43.21783" lon="1.94793">
        <ele>397</ele>
        <time>2006-12-07T18:02:55Z</time>
      </trkpt>
      <trkpt lat="43.21702" lon="1.94746">
        <ele>404</ele>
        <time>2006-12-07T18:02:55Z</time>
      </trkpt>
      <trkpt lat="43.21678" lon="1.94739">
        <ele>406</ele>
        <time>2006-12-07T18:02:55Z</time>
      </trkpt>
      <trkpt lat="43.21588" lon="1.9475">
        <ele>403</ele>
        <time>2006-12-07T18:02:55Z</time>
      </trkpt>
      <trkpt lat="43.21543" lon="1.94761">
        <ele>400</ele>
        <time>2006-12-07T18:02:55Z</time>
      </trkpt>
      <trkpt lat="43.21513" lon="1.94778">
        <ele>396</ele>
        <time>2006-12-07T18:02:55Z</time>
      </trkpt>
      <trkpt lat="43.21494" lon="1.94793">
        <ele>395</ele>
        <time>2006-12-07T18:02:55Z</time>
      </trkpt>
      <trkpt lat="43.21461" lon="1.94844">
        <ele>395</ele>
        <time>2006-12-07T18:02:55Z</time>
      </trkpt>
      <trkpt lat="43.21416" lon="1.94898">
        <ele>395</ele>
        <time>2006-12-07T18:02:55Z</time>
      </trkpt>
      <trkpt lat="43.21397" lon="1.94896">
        <ele>396</ele>
        <time>2006-12-07T18:02:55Z</time>
      </trkpt>
      <trkpt lat="43.21333" lon="1.94819">
        <ele>395</ele>
        <time>2006-12-07T18:02:55Z</time>
      </trkpt>
      <trkpt lat="43.21285" lon="1.94799">
        <ele>390</ele>
        <time>2006-12-07T18:02:55Z</time>
      </trkpt>
      <trkpt lat="43.21255" lon="1.94812">
        <ele>391</ele>
        <time>2006-12-07T18:02:55Z</time>
      </trkpt>
      <trkpt lat="43.21223" lon="1.94849">
        <ele>396</ele>
        <time>2006-12-07T18:02:55Z</time>
      </trkpt>
      <trkpt lat="43.2121" lon="1.94857">
        <ele>399</ele>
        <time>2006-12-07T18:02:55Z</time>
      </trkpt>
      <trkpt lat="43.21255" lon="1.94703">
        <ele>394</ele>
        <time>2006-12-07T18:02:55Z</time>
      </trkpt>
      <trkpt lat="43.21283" lon="1.94563">
        <ele>391</ele>
        <time>2006-12-07T18:02:55Z</time>
      </trkpt>
      <trkpt lat="43.21288" lon="1.94518">
        <ele>390</ele>
        <time>2006-12-07T18:02:55Z</time>
      </trkpt>
      <trkpt lat="43.21326" lon="1.94353">
        <ele>374</ele>
        <time>2006-12-07T18:02:55Z</time>
      </trkpt>
      <trkpt lat="43.21339" lon="1.94261">
        <ele>367</ele>
        <time>2006-12-07T18:02:55Z</time>
      </trkpt>
      <trkpt lat="43.21335" lon="1.94181">
        <ele>360</ele>
        <time>2006-12-07T18:02:55Z</time>
      </trkpt>
      <trkpt lat="43.2132" lon="1.94168">
        <ele>356</ele>
        <time>2006-12-07T18:02:55Z</time>
      </trkpt>
      <trkpt lat="43.2129" lon="1.9414">
        <ele>356</ele>
        <time>2006-12-07T18:02:55Z</time>
      </trkpt>
      <trkpt lat="43.21281" lon="1.94102">
        <ele>354</ele>
        <time>2006-12-07T18:02:55Z</time>
      </trkpt>
      <trkpt lat="43.21258" lon="1.94046">
        <ele>347</ele>
        <time>2006-12-07T18:02:55Z</time>
      </trkpt>
      <trkpt lat="43.21191" lon="1.93928">
        <ele>342</ele>
        <time>2006-12-07T18:02:55Z</time>
      </trkpt>
      <trkpt lat="43.21195" lon="1.93887">
        <ele>344</ele>
        <time>2006-12-07T18:02:55Z</time>
      </trkpt>
      <trkpt lat="43.21234" lon="1.93758">
        <ele>341</ele>
        <time>2006-12-07T18:02:55Z</time>
      </trkpt>
      <trkpt lat="43.21249" lon="1.93664">
        <ele>337</ele>
        <time>2006-12-07T18:02:55Z</time>
      </trkpt>
      <trkpt lat="43.21215" lon="1.93583">
        <ele>335</ele>
        <time>2006-12-07T18:02:55Z</time>
      </trkpt>
      <trkpt lat="43.212" lon="1.93424">
        <ele>333</ele>
        <time>2006-12-07T18:02:55Z</time>
      </trkpt>
      <trkpt lat="43.21142" lon="1.93173">
        <ele>327</ele>
        <time>2006-12-07T18:02:55Z</time>
      </trkpt>
      <trkpt lat="43.2115" lon="1.93147">
        <ele>327</ele>
        <time>2006-12-07T18:02:55Z</time>
      </trkpt>
      <trkpt lat="43.2123" lon="1.93119">
        <ele>330</ele>
        <time>2006-12-07T18:02:55Z</time>
      </trkpt>
      <trkpt lat="43.21223" lon="1.931">
        <ele>334</ele>
        <time>2006-12-07T18:02:55Z</time>
      </trkpt>
      <trkpt lat="43.21273" lon="1.93053">
        <ele>342</ele>
        <time>2006-12-07T18:02:55Z</time>
      </trkpt>
      <trkpt lat="43.21294" lon="1.93007">
        <ele>348</ele>
        <time>2006-12-07T18:02:55Z</time>
      </trkpt>
      <trkpt lat="43.21307" lon="1.92952">
        <ele>353</ele>
        <time>2006-12-07T18:02:55Z</time>
      </trkpt>
      <trkpt lat="43.21341" lon="1.92898">
        <ele>357</ele>
        <time>2006-12-07T18:02:55Z</time>
      </trkpt>
      <trkpt lat="43.21343" lon="1.92892">
        <ele>357</ele>
        <time>2006-12-07T18:02:55Z</time>
      </trkpt>
      <trkpt lat="43.2138" lon="1.92838">
        <ele>362</ele>
        <time>2006-12-07T18:02:55Z</time>
      </trkpt>
      <trkpt lat="43.21416" lon="1.92769">
        <ele>364</ele>
        <time>2006-12-07T18:02:55Z</time>
      </trkpt>
      <trkpt lat="43.21442" lon="1.9269">
        <ele>363</ele>
        <time>2006-12-07T18:02:55Z</time>
      </trkpt>
      <trkpt lat="43.21457" lon="1.92651">
        <ele>362</ele>
        <time>2006-12-07T18:02:55Z</time>
      </trkpt>
      <trkpt lat="43.21515" lon="1.92574">
        <ele>362</ele>
        <time>2006-12-07T18:02:55Z</time>
      </trkpt>
      <trkpt lat="43.21549" lon="1.92417">
        <ele>362</ele>
        <time>2006-12-07T18:02:55Z</time>
      </trkpt>
      <trkpt lat="43.21556" lon="1.92392">
        <ele>361</ele>
        <time>2006-12-07T18:02:55Z</time>
      </trkpt>
      <trkpt lat="43.21646" lon="1.92199">
        <ele>350</ele>
        <time>2006-12-07T18:02:55Z</time>
      </trkpt>
      <trkpt lat="43.21803" lon="1.91969">
        <ele>340</ele>
        <time>2006-12-07T18:02:55Z</time>
      </trkpt>
      <trkpt lat="43.21837" lon="1.91795">
        <ele>337</ele>
        <time>2006-12-07T18:02:55Z</time>
      </trkpt>
      <trkpt lat="43.21938" lon="1.91559">
        <ele>328</ele>
        <time>2006-12-07T18:02:55Z</time>
      </trkpt>
      <trkpt lat="43.21949" lon="1.9154">
        <ele>327</ele>
        <time>2006-12-07T18:02:55Z</time>
      </trkpt>
      <trkpt lat="43.21981" lon="1.91505">
        <ele>328</ele>
        <time>2006-12-07T18:02:55Z</time>
      </trkpt>
      <trkpt lat="43.21989" lon="1.91467">
        <ele>330</ele>
        <time>2006-12-07T18:02:55Z</time>
      </trkpt>
      <trkpt lat="43.21972" lon="1.91432">
        <ele>329</ele>
        <time>2006-12-07T18:02:55Z</time>
      </trkpt>
      <trkpt lat="43.2191" lon="1.91353">
        <ele>326</ele>
        <time>2006-12-07T18:02:55Z</time>
      </trkpt>
      <trkpt lat="43.21861" lon="1.91308">
        <ele>326</ele>
        <time>2006-12-07T18:02:55Z</time>
      </trkpt>
      <trkpt lat="43.21738" lon="1.91235">
        <ele>325</ele>
        <time>2006-12-07T18:02:55Z</time>
      </trkpt>
      <trkpt lat="43.2156" lon="1.91175">
        <ele>326</ele>
        <time>2006-12-07T18:02:55Z</time>
      </trkpt>
      <trkpt lat="43.21429" lon="1.91126">
        <ele>320</ele>
        <time>2006-12-07T18:02:55Z</time>
      </trkpt>
      <trkpt lat="43.21412" lon="1.91104">
        <ele>322</ele>
        <time>2006-12-07T18:02:55Z</time>
      </trkpt>
      <trkpt lat="43.21182" lon="1.91066">
        <ele>321</ele>
        <time>2006-12-07T18:02:55Z</time>
      </trkpt>
      <trkpt lat="43.21159" lon="1.91074">
        <ele>319</ele>
        <time>2006-12-07T18:02:55Z</time>
      </trkpt>
      <trkpt lat="43.21116" lon="1.91074">
        <ele>316</ele>
        <time>2006-12-07T18:02:55Z</time>
      </trkpt>
      <trkpt lat="43.2109" lon="1.91063">
        <ele>318</ele>
        <time>2006-12-07T18:02:55Z</time>
      </trkpt>
      <trkpt lat="43.21075" lon="1.91053">
        <ele>320</ele>
        <time>2006-12-07T18:02:55Z</time>
      </trkpt>
      <trkpt lat="43.21062" lon="1.91023">
        <ele>321</ele>
        <time>2006-12-07T18:02:55Z</time>
      </trkpt>
      <trkpt lat="43.21034" lon="1.91014">
        <ele>326</ele>
        <time>2006-12-07T18:02:55Z</time>
      </trkpt>
      <trkpt lat="43.21032" lon="1.91001">
        <ele>326</ele>
        <time>2006-12-07T18:02:55Z</time>
      </trkpt>
      <trkpt lat="43.21062" lon="1.90945">
        <ele>333</ele>
        <time>2006-12-07T18:02:55Z</time>
      </trkpt>
      <trkpt lat="43.21071" lon="1.90909">
        <ele>336</ele>
        <time>2006-12-07T18:02:55Z</time>
      </trkpt>
      <trkpt lat="43.21125" lon="1.90778">
        <ele>343</ele>
        <time>2006-12-07T18:02:55Z</time>
      </trkpt>
      <trkpt lat="43.21135" lon="1.90716">
        <ele>345</ele>
        <time>2006-12-07T18:02:55Z</time>
      </trkpt>
      <trkpt lat="43.21127" lon="1.9069">
        <ele>344</ele>
        <time>2006-12-07T18:02:55Z</time>
      </trkpt>
      <trkpt lat="43.21135" lon="1.90664">
        <ele>345</ele>
        <time>2006-12-07T18:02:55Z</time>
      </trkpt>
      <trkpt lat="43.21144" lon="1.9066">
        <ele>345</ele>
        <time>2006-12-07T18:02:55Z</time>
      </trkpt>
      <trkpt lat="43.2118" lon="1.90536">
        <ele>352</ele>
        <time>2006-12-07T18:02:55Z</time>
      </trkpt>
      <trkpt lat="43.21182" lon="1.90486">
        <ele>357</ele>
        <time>2006-12-07T18:02:55Z</time>
      </trkpt>
      <trkpt lat="43.21219" lon="1.90293">
        <ele>363</ele>
        <time>2006-12-07T18:02:55Z</time>
      </trkpt>
      <trkpt lat="43.21255" lon="1.90203">
        <ele>361</ele>
        <time>2006-12-07T18:02:55Z</time>
      </trkpt>
      <trkpt lat="43.21324" lon="1.90149">
        <ele>358</ele>
        <time>2006-12-07T18:02:55Z</time>
      </trkpt>
      <trkpt lat="43.21352" lon="1.90154">
        <ele>358</ele>
        <time>2006-12-07T18:02:55Z</time>
      </trkpt>
      <trkpt lat="43.21358" lon="1.90173">
        <ele>358</ele>
        <time>2006-12-07T18:02:55Z</time>
      </trkpt>
      <trkpt lat="43.21363" lon="1.90222">
        <ele>352</ele>
        <time>2006-12-07T18:02:55Z</time>
      </trkpt>
      <trkpt lat="43.21356" lon="1.90237">
        <ele>351</ele>
        <time>2006-12-07T18:02:55Z</time>
      </trkpt>
      <trkpt lat="43.21352" lon="1.90252">
        <ele>349</ele>
        <time>2006-12-07T18:02:55Z</time>
      </trkpt>
      <trkpt lat="43.21388" lon="1.90293">
        <ele>342</ele>
        <time>2006-12-07T18:02:55Z</time>
      </trkpt>
      <trkpt lat="43.21412" lon="1.9036">
        <ele>342</ele>
        <time>2006-12-07T18:02:55Z</time>
      </trkpt>
      <trkpt lat="43.21494" lon="1.90437">
        <ele>342</ele>
        <time>2006-12-07T18:02:55Z</time>
      </trkpt>
      <trkpt lat="43.21554" lon="1.90274">
        <ele>349</ele>
        <time>2006-12-07T18:02:55Z</time>
      </trkpt>
      <trkpt lat="43.21573" lon="1.90216">
        <ele>353</ele>
        <time>2006-12-07T18:02:55Z</time>
      </trkpt>
      <trkpt lat="43.21586" lon="1.90177">
        <ele>355</ele>
        <time>2006-12-07T18:02:55Z</time>
      </trkpt>
      <trkpt lat="43.21607" lon="1.90192">
        <ele>360</ele>
        <time>2006-12-07T18:02:55Z</time>
      </trkpt>
      <trkpt lat="43.21631" lon="1.90175">
        <ele>362</ele>
        <time>2006-12-07T18:02:55Z</time>
      </trkpt>
      <trkpt lat="43.21642" lon="1.90175">
        <ele>362</ele>
        <time>2006-12-07T18:02:55Z</time>
      </trkpt>
      <trkpt lat="43.21682" lon="1.90188">
        <ele>364</ele>
        <time>2006-12-07T18:02:55Z</time>
      </trkpt>
      <trkpt lat="43.21697" lon="1.90242">
        <ele>366</ele>
        <time>2006-12-07T18:02:55Z</time>
      </trkpt>
      <trkpt lat="43.21704" lon="1.90248">
        <ele>366</ele>
        <time>2006-12-07T18:02:55Z</time>
      </trkpt>
      <trkpt lat="43.21839" lon="1.90248">
        <ele>369</ele>
        <time>2006-12-07T18:02:55Z</time>
      </trkpt>
      <trkpt lat="43.21876" lon="1.90261">
        <ele>372</ele>
        <time>2006-12-07T18:02:55Z</time>
      </trkpt>
      <trkpt lat="43.21897" lon="1.90252">
        <ele>374</ele>
        <time>2006-12-07T18:02:55Z</time>
      </trkpt>
      <trkpt lat="43.2191" lon="1.90222">
        <ele>374</ele>
        <time>2006-12-07T18:02:55Z</time>
      </trkpt>
      <trkpt lat="43.21942" lon="1.90181">
        <ele>373</ele>
        <time>2006-12-07T18:02:55Z</time>
      </trkpt>
      <trkpt lat="43.21946" lon="1.90175">
        <ele>371</ele>
        <time>2006-12-07T18:02:55Z</time>
      </trkpt>
      <trkpt lat="43.21936" lon="1.90156">
        <ele>370</ele>
        <time>2006-12-07T18:02:55Z</time>
      </trkpt>
      <trkpt lat="43.21931" lon="1.90132">
        <ele>369</ele>
        <time>2006-12-07T18:02:55Z</time>
      </trkpt>
      <trkpt lat="43.21936" lon="1.89913">
        <ele>363</ele>
        <time>2006-12-07T18:02:55Z</time>
      </trkpt>
      <trkpt lat="43.21953" lon="1.89842">
        <ele>360</ele>
        <time>2006-12-07T18:02:55Z</time>
      </trkpt>
      <trkpt lat="43.21983" lon="1.89761">
        <ele>357</ele>
        <time>2006-12-07T18:02:55Z</time>
      </trkpt>
      <trkpt lat="43.22004" lon="1.89684">
        <ele>352</ele>
        <time>2006-12-07T18:02:55Z</time>
      </trkpt>
      <trkpt lat="43.22142" lon="1.89405">
        <ele>334</ele>
        <time>2006-12-07T18:02:55Z</time>
      </trkpt>
      <trkpt lat="43.22155" lon="1.89362">
        <ele>334</ele>
        <time>2006-12-07T18:02:55Z</time>
      </trkpt>
      <trkpt lat="43.22161" lon="1.89317">
        <ele>337</ele>
        <time>2006-12-07T18:02:55Z</time>
      </trkpt>
      <trkpt lat="43.22238" lon="1.89139">
        <ele>351</ele>
        <time>2006-12-07T18:02:55Z</time>
      </trkpt>
      <trkpt lat="43.22245" lon="1.89128">
        <ele>351</ele>
        <time>2006-12-07T18:02:55Z</time>
      </trkpt>
      <trkpt lat="43.2226" lon="1.89145">
        <ele>352</ele>
        <time>2006-12-07T18:02:55Z</time>
      </trkpt>
      <trkpt lat="43.22296" lon="1.89267">
        <ele>352</ele>
        <time>2006-12-07T18:02:55Z</time>
      </trkpt>
      <trkpt lat="43.22322" lon="1.89278">
        <ele>353</ele>
        <time>2006-12-07T18:02:55Z</time>
      </trkpt>
      <trkpt lat="43.22416" lon="1.89252">
        <ele>347</ele>
        <time>2006-12-07T18:02:55Z</time>
      </trkpt>
      <trkpt lat="43.22461" lon="1.8922">
        <ele>341</ele>
        <time>2006-12-07T18:02:55Z</time>
      </trkpt>
      <trkpt lat="43.22496" lon="1.89182">
        <ele>338</ele>
        <time>2006-12-07T18:02:55Z</time>
      </trkpt>
      <trkpt lat="43.22504" lon="1.89184">
        <ele>337</ele>
        <time>2006-12-07T18:02:55Z</time>
      </trkpt>
      <trkpt lat="43.22489" lon="1.89222">
        <ele>335</ele>
        <time>2006-12-07T18:02:55Z</time>
      </trkpt>
      <trkpt lat="43.22425" lon="1.89373">
        <ele>327</ele>
        <time>2006-12-07T18:02:55Z</time>
      </trkpt>
      <trkpt lat="43.22481" lon="1.89476">
        <ele>322</ele>
        <time>2006-12-07T18:02:55Z</time>
      </trkpt>
      <trkpt lat="43.22547" lon="1.89514">
        <ele>326</ele>
        <time>2006-12-07T18:02:55Z</time>
      </trkpt>
      <trkpt lat="43.22586" lon="1.89508">
        <ele>330</ele>
        <time>2006-12-07T18:02:55Z</time>
      </trkpt>
      <trkpt lat="43.22624" lon="1.89486">
        <ele>332</ele>
        <time>2006-12-07T18:02:55Z</time>
      </trkpt>
      <trkpt lat="43.22644" lon="1.89486">
        <ele>333</ele>
        <time>2006-12-07T18:02:55Z</time>
      </trkpt>
      <trkpt lat="43.22717" lon="1.89501">
        <ele>326</ele>
        <time>2006-12-07T18:02:55Z</time>
      </trkpt>
      <trkpt lat="43.22805" lon="1.89518">
        <ele>314</ele>
        <time>2006-12-07T18:02:55Z</time>
      </trkpt>
      <trkpt lat="43.2283" lon="1.89536">
        <ele>311</ele>
        <time>2006-12-07T18:02:55Z</time>
      </trkpt>
      <trkpt lat="43.22891" lon="1.89609">
        <ele>312</ele>
        <time>2006-12-07T18:02:55Z</time>
      </trkpt>
      <trkpt lat="43.22869" lon="1.89699">
        <ele>316</ele>
        <time>2006-12-07T18:02:55Z</time>
      </trkpt>
      <trkpt lat="43.22796" lon="1.89907">
        <ele>331</ele>
        <time>2006-12-07T18:02:55Z</time>
      </trkpt>
      <trkpt lat="43.22783" lon="1.89982">
        <ele>335</ele>
        <time>2006-12-07T18:02:55Z</time>
      </trkpt>
      <trkpt lat="43.22783" lon="1.901">
        <ele>338</ele>
        <time>2006-12-07T18:02:55Z</time>
      </trkpt>
      <trkpt lat="43.2277" lon="1.90289">
        <ele>351</ele>
        <time>2006-12-07T18:02:55Z</time>
      </trkpt>
      <trkpt lat="43.22742" lon="1.90437">
        <ele>361</ele>
        <time>2006-12-07T18:02:55Z</time>
      </trkpt>
      <trkpt lat="43.22764" lon="1.90433">
        <ele>361</ele>
        <time>2006-12-07T18:02:55Z</time>
      </trkpt>
      <trkpt lat="43.22783" lon="1.90433">
        <ele>361</ele>
        <time>2006-12-07T18:02:55Z</time>
      </trkpt>
      <trkpt lat="43.22813" lon="1.90445">
        <ele>363</ele>
        <time>2006-12-07T18:02:55Z</time>
      </trkpt>
      <trkpt lat="43.22845" lon="1.90426">
        <ele>361</ele>
        <time>2006-12-07T18:02:55Z</time>
      </trkpt>
      <trkpt lat="43.22933" lon="1.90259">
        <ele>359</ele>
        <time>2006-12-07T18:02:55Z</time>
      </trkpt>
      <trkpt lat="43.22957" lon="1.90235">
        <ele>357</ele>
        <time>2006-12-07T18:02:55Z</time>
      </trkpt>
      <trkpt lat="43.2303" lon="1.90106">
        <ele>351</ele>
        <time>2006-12-07T18:02:55Z</time>
      </trkpt>
      <trkpt lat="43.23088" lon="1.89984">
        <ele>348</ele>
        <time>2006-12-07T18:02:55Z</time>
      </trkpt>
      <trkpt lat="43.23099" lon="1.89948">
        <ele>349</ele>
        <time>2006-12-07T18:02:55Z</time>
      </trkpt>
      <trkpt lat="43.23097" lon="1.89937">
        <ele>349</ele>
        <time>2006-12-07T18:02:55Z</time>
      </trkpt>
      <trkpt lat="43.2309" lon="1.89911">
        <ele>350</ele>
        <time>2006-12-07T18:02:55Z</time>
      </trkpt>
      <trkpt lat="43.23086" lon="1.89842">
        <ele>352</ele>
        <time>2006-12-07T18:02:55Z</time>
      </trkpt>
      <trkpt lat="43.23101" lon="1.89757">
        <ele>349</ele>
        <time>2006-12-07T18:02:55Z</time>
      </trkpt>
      <trkpt lat="43.23107" lon="1.89677">
        <ele>349</ele>
        <time>2006-12-07T18:02:55Z</time>
      </trkpt>
      <trkpt lat="43.23118" lon="1.8963">
        <ele>348</ele>
        <time>2006-12-07T18:02:55Z</time>
      </trkpt>
      <trkpt lat="43.2315" lon="1.89579">
        <ele>344</ele>
        <time>2006-12-07T18:02:55Z</time>
      </trkpt>
      <trkpt lat="43.23178" lon="1.89546">
        <ele>344</ele>
        <time>2006-12-07T18:02:55Z</time>
      </trkpt>
      <trkpt lat="43.2329" lon="1.89525">
        <ele>345</ele>
        <time>2006-12-07T18:02:55Z</time>
      </trkpt>
      <trkpt lat="43.2333" lon="1.89493">
        <ele>342</ele>
        <time>2006-12-07T18:02:55Z</time>
      </trkpt>
      <trkpt lat="43.23406" lon="1.89469">
        <ele>339</ele>
        <time>2006-12-07T18:02:55Z</time>
      </trkpt>
      <trkpt lat="43.23451" lon="1.89424">
        <ele>335</ele>
        <time>2006-12-07T18:02:55Z</time>
      </trkpt>
      <trkpt lat="43.23483" lon="1.89377">
        <ele>327</ele>
        <time>2006-12-07T18:02:55Z</time>
      </trkpt>
      <trkpt lat="43.23506" lon="1.89297">
        <ele>323</ele>
        <time>2006-12-07T18:02:55Z</time>
      </trkpt>
      <trkpt lat="43.23521" lon="1.8925">
        <ele>321</ele>
        <time>2006-12-07T18:02:55Z</time>
      </trkpt>
      <trkpt lat="43.23554" lon="1.89188">
        <ele>317</ele>
        <time>2006-12-07T18:02:55Z</time>
      </trkpt>
      <trkpt lat="43.23575" lon="1.89169">
        <ele>316</ele>
        <time>2006-12-07T18:02:55Z</time>
      </trkpt>
      <trkpt lat="43.23614" lon="1.89149">
        <ele>315</ele>
        <time>2006-12-07T18:02:55Z</time>
      </trkpt>
      <trkpt lat="43.23624" lon="1.89126">
        <ele>315</ele>
        <time>2006-12-07T18:02:55Z</time>
      </trkpt>
      <trkpt lat="43.23646" lon="1.89034">
        <ele>310</ele>
        <time>2006-12-07T18:02:55Z</time>
      </trkpt>
      <trkpt lat="43.23663" lon="1.8901">
        <ele>309</ele>
        <time>2006-12-07T18:02:55Z</time>
      </trkpt>
      <trkpt lat="43.23682" lon="1.88991">
        <ele>307</ele>
        <time>2006-12-07T18:02:55Z</time>
      </trkpt>
      <trkpt lat="43.2374" lon="1.88965">
        <ele>306</ele>
        <time>2006-12-07T18:02:55Z</time>
      </trkpt>
      <trkpt lat="43.23785" lon="1.88877">
        <ele>307</ele>
        <time>2006-12-07T18:02:55Z</time>
      </trkpt>
      <trkpt lat="43.23798" lon="1.88866">
        <ele>306</ele>
        <time>2006-12-07T18:02:55Z</time>
      </trkpt>
      <trkpt lat="43.23805" lon="1.88862">
        <ele>306</ele>
        <time>2006-12-07T18:02:55Z</time>
      </trkpt>
      <trkpt lat="43.23828" lon="1.88873">
        <ele>308</ele>
        <time>2006-12-07T18:02:55Z</time>
      </trkpt>
      <trkpt lat="43.23888" lon="1.88913">
        <ele>314</ele>
        <time>2006-12-07T18:02:55Z</time>
      </trkpt>
      <trkpt lat="43.23931" lon="1.88961">
        <ele>321</ele>
        <time>2006-12-07T18:02:55Z</time>
      </trkpt>
      <trkpt lat="43.23946" lon="1.88988">
        <ele>325</ele>
        <time>2006-12-07T18:02:55Z</time>
      </trkpt>
      <trkpt lat="43.2397" lon="1.8901">
        <ele>328</ele>
        <time>2006-12-07T18:02:55Z</time>
      </trkpt>
      <trkpt lat="43.24004" lon="1.89016">
        <ele>327</ele>
        <time>2006-12-07T18:02:55Z</time>
      </trkpt>
      <trkpt lat="43.24019" lon="1.89046">
        <ele>323</ele>
        <time>2006-12-07T18:02:55Z</time>
      </trkpt>
      <trkpt lat="43.24013" lon="1.89124">
        <ele>315</ele>
        <time>2006-12-07T18:02:55Z</time>
      </trkpt>
      <trkpt lat="43.24032" lon="1.89132">
        <ele>312</ele>
        <time>2006-12-07T18:02:55Z</time>
      </trkpt>
      <trkpt lat="43.24064" lon="1.89126">
        <ele>307</ele>
        <time>2006-12-07T18:02:55Z</time>
      </trkpt>
      <trkpt lat="43.24096" lon="1.89104">
        <ele>302</ele>
        <time>2006-12-07T18:02:55Z</time>
      </trkpt>
      <trkpt lat="43.2426" lon="1.89018">
        <ele>289</ele>
        <time>2006-12-07T18:02:55Z</time>
      </trkpt>
      <trkpt lat="43.24519" lon="1.89154">
        <ele>281</ele>
        <time>2006-12-07T18:02:55Z</time>
      </trkpt>
      <trkpt lat="43.24712" lon="1.89216">
        <ele>298</ele>
        <time>2006-12-07T18:02:55Z</time>
      </trkpt>
      <trkpt lat="43.24717" lon="1.89214">
        <ele>299</ele>
        <time>2006-12-07T18:02:55Z</time>
      </trkpt>
      <trkpt lat="43.2471" lon="1.89237">
        <ele>299</ele>
        <time>2006-12-07T18:02:55Z</time>
      </trkpt>
      <trkpt lat="43.24712" lon="1.89248">
        <ele>301</ele>
        <time>2006-12-07T18:02:55Z</time>
      </trkpt>
      <trkpt lat="43.24736" lon="1.89265">
        <ele>304</ele>
        <time>2006-12-07T18:02:55Z</time>
      </trkpt>
      <trkpt lat="43.2477" lon="1.89297">
        <ele>313</ele>
        <time>2006-12-07T18:02:55Z</time>
      </trkpt>
      <trkpt lat="43.24783" lon="1.89276">
        <ele>316</ele>
        <time>2006-12-07T18:02:55Z</time>
      </trkpt>
      <trkpt lat="43.24787" lon="1.89263">
        <ele>316</ele>
        <time>2006-12-07T18:02:55Z</time>
      </trkpt>
      <trkpt lat="43.24787" lon="1.89216">
        <ele>316</ele>
        <time>2006-12-07T18:02:55Z</time>
      </trkpt>
      <trkpt lat="43.248" lon="1.89201">
        <ele>317</ele>
        <time>2006-12-07T18:02:55Z</time>
      </trkpt>
      <trkpt lat="43.24813" lon="1.89214">
        <ele>317</ele>
        <time>2006-12-07T18:02:55Z</time>
      </trkpt>
      <trkpt lat="43.24817" lon="1.89218">
        <ele>317</ele>
        <time>2006-12-07T18:02:55Z</time>
      </trkpt>
      <trkpt lat="43.24837" lon="1.89222">
        <ele>319</ele>
        <time>2006-12-07T18:02:55Z</time>
      </trkpt>
      <trkpt lat="43.2486" lon="1.89222">
        <ele>319</ele>
        <time>2006-12-07T18:02:55Z</time>
      </trkpt>
      <trkpt lat="43.2492" lon="1.89186">
        <ele>321</ele>
        <time>2006-12-07T18:02:55Z</time>
      </trkpt>
      <trkpt lat="43.24985" lon="1.8907">
        <ele>323</ele>
        <time>2006-12-07T18:02:55Z</time>
      </trkpt>
      <trkpt lat="43.25053" lon="1.89021">
        <ele>326</ele>
        <time>2006-12-07T18:02:55Z</time>
      </trkpt>
      <trkpt lat="43.2512" lon="1.88911">
        <ele>320</ele>
        <time>2006-12-07T18:02:55Z</time>
      </trkpt>
      <trkpt lat="43.25133" lon="1.88933">
        <ele>318</ele>
        <time>2006-12-07T18:02:55Z</time>
      </trkpt>
      <trkpt lat="43.25105" lon="1.89031">
        <ele>314</ele>
        <time>2006-12-07T18:02:55Z</time>
      </trkpt>
      <trkpt lat="43.2512" lon="1.89006">
        <ele>311</ele>
        <time>2006-12-07T18:02:55Z</time>
      </trkpt>
      <trkpt lat="43.25167" lon="1.88976">
        <ele>303</ele>
        <time>2006-12-07T18:02:55Z</time>
      </trkpt>
      <trkpt lat="43.25455" lon="1.88845">
        <ele>279</ele>
        <time>2006-12-07T18:02:55Z</time>
      </trkpt>
      <trkpt lat="43.2548" lon="1.88845">
        <ele>277</ele>
        <time>2006-12-07T18:02:55Z</time>
      </trkpt>
      <trkpt lat="43.25695" lon="1.88939">
        <ele>266</ele>
        <time>2006-12-07T18:02:55Z</time>
      </trkpt>
      <trkpt lat="43.2577" lon="1.88993">
        <ele>269</ele>
        <time>2006-12-07T18:02:55Z</time>
      </trkpt>
      <trkpt lat="43.25796" lon="1.88963">
        <ele>269</ele>
        <time>2006-12-07T18:02:55Z</time>
      </trkpt>
      <trkpt lat="43.25826" lon="1.889">
        <ele>268</ele>
        <time>2006-12-07T18:02:55Z</time>
      </trkpt>
      <trkpt lat="43.25993" lon="1.88986">
        <ele>287</ele>
        <time>2006-12-07T18:02:55Z</time>
      </trkpt>
      <trkpt lat="43.26038" lon="1.88986">
        <ele>292</ele>
        <time>2006-12-07T18:02:55Z</time>
      </trkpt>
      <trkpt lat="43.26096" lon="1.89001">
        <ele>299</ele>
        <time>2006-12-07T18:02:55Z</time>
      </trkpt>
      <trkpt lat="43.26111" lon="1.89001">
        <ele>302</ele>
        <time>2006-12-07T18:02:55Z</time>
      </trkpt>
      <trkpt lat="43.26122" lon="1.89012">
        <ele>304</ele>
        <time>2006-12-07T18:02:55Z</time>
      </trkpt>
      <trkpt lat="43.2615" lon="1.89079">
        <ele>312</ele>
        <time>2006-12-07T18:02:55Z</time>
      </trkpt>
      <trkpt lat="43.26165" lon="1.8913">
        <ele>319</ele>
        <time>2006-12-07T18:02:55Z</time>
      </trkpt>
      <trkpt lat="43.26182" lon="1.8916">
        <ele>321</ele>
        <time>2006-12-07T18:02:55Z</time>
      </trkpt>
      <trkpt lat="43.26184" lon="1.89199">
        <ele>325</ele>
        <time>2006-12-07T18:02:55Z</time>
      </trkpt>
      <trkpt lat="43.26214" lon="1.89263">
        <ele>329</ele>
        <time>2006-12-07T18:02:55Z</time>
      </trkpt>
      <trkpt lat="43.26257" lon="1.89276">
        <ele>331</ele>
        <time>2006-12-07T18:02:55Z</time>
      </trkpt>
      <trkpt lat="43.26268" lon="1.89302">
        <ele>332</ele>
        <time>2006-12-07T18:02:55Z</time>
      </trkpt>
      <trkpt lat="43.26257" lon="1.89385">
        <ele>332</ele>
        <time>2006-12-07T18:02:55Z</time>
      </trkpt>
      <trkpt lat="43.26212" lon="1.89476">
        <ele>334</ele>
        <time>2006-12-07T18:02:55Z</time>
      </trkpt>
      <trkpt lat="43.26204" lon="1.89568">
        <ele>336</ele>
        <time>2006-12-07T18:02:55Z</time>
      </trkpt>
      <trkpt lat="43.26236" lon="1.89632">
        <ele>334</ele>
        <time>2006-12-07T18:02:55Z</time>
      </trkpt>
      <trkpt lat="43.26234" lon="1.89667">
        <ele>333</ele>
        <time>2006-12-07T18:02:55Z</time>
      </trkpt>
      <trkpt lat="43.26212" lon="1.89778">
        <ele>338</ele>
        <time>2006-12-07T18:02:55Z</time>
      </trkpt>
      <trkpt lat="43.26214" lon="1.89812">
        <ele>340</ele>
        <time>2006-12-07T18:02:55Z</time>
      </trkpt>
      <trkpt lat="43.26208" lon="1.8984">
        <ele>342</ele>
        <time>2006-12-07T18:02:55Z</time>
      </trkpt>
      <trkpt lat="43.26178" lon="1.89885">
        <ele>346</ele>
        <time>2006-12-07T18:02:55Z</time>
      </trkpt>
      <trkpt lat="43.26116" lon="1.90014">
        <ele>351</ele>
        <time>2006-12-07T18:02:55Z</time>
      </trkpt>
      <trkpt lat="43.26096" lon="1.90074">
        <ele>352</ele>
        <time>2006-12-07T18:02:55Z</time>
      </trkpt>
      <trkpt lat="43.26094" lon="1.90113">
        <ele>354</ele>
        <time>2006-12-07T18:02:55Z</time>
      </trkpt>
      <trkpt lat="43.26128" lon="1.9019">
        <ele>350</ele>
        <time>2006-12-07T18:02:55Z</time>
      </trkpt>
      <trkpt lat="43.26124" lon="1.90237">
        <ele>350</ele>
        <time>2006-12-07T18:02:55Z</time>
      </trkpt>
      <trkpt lat="43.26096" lon="1.90366">
        <ele>346</ele>
        <time>2006-12-07T18:02:55Z</time>
      </trkpt>
      <trkpt lat="43.26079" lon="1.9042">
        <ele>349</ele>
        <time>2006-12-07T18:02:55Z</time>
      </trkpt>
      <trkpt lat="43.26073" lon="1.9045">
        <ele>351</ele>
        <time>2006-12-07T18:02:55Z</time>
      </trkpt>
      <trkpt lat="43.26075" lon="1.90493">
        <ele>353</ele>
        <time>2006-12-07T18:02:55Z</time>
      </trkpt>
      <trkpt lat="43.26098" lon="1.90536">
        <ele>357</ele>
        <time>2006-12-07T18:02:55Z</time>
      </trkpt>
      <trkpt lat="43.26126" lon="1.90568">
        <ele>359</ele>
        <time>2006-12-07T18:02:55Z</time>
      </trkpt>
      <trkpt lat="43.26131" lon="1.90585">
        <ele>360</ele>
        <time>2006-12-07T18:02:55Z</time>
      </trkpt>
      <trkpt lat="43.26131" lon="1.90651">
        <ele>363</ele>
        <time>2006-12-07T18:02:55Z</time>
      </trkpt>
      <trkpt lat="43.26146" lon="1.90742">
        <ele>359</ele>
        <time>2006-12-07T18:02:55Z</time>
      </trkpt>
      <trkpt lat="43.26139" lon="1.90842">
        <ele>357</ele>
        <time>2006-12-07T18:02:55Z</time>
      </trkpt>
      <trkpt lat="43.26141" lon="1.90887">
        <ele>357</ele>
        <time>2006-12-07T18:02:55Z</time>
      </trkpt>
      <trkpt lat="43.26133" lon="1.90928">
        <ele>356</ele>
        <time>2006-12-07T18:02:55Z</time>
      </trkpt>
      <trkpt lat="43.26135" lon="1.90939">
        <ele>355</ele>
        <time>2006-12-07T18:02:55Z</time>
      </trkpt>
      <trkpt lat="43.26182" lon="1.90965">
        <ele>350</ele>
        <time>2006-12-07T18:02:55Z</time>
      </trkpt>
      <trkpt lat="43.26238" lon="1.90969">
        <ele>346</ele>
        <time>2006-12-07T18:02:55Z</time>
      </trkpt>
      <trkpt lat="43.26253" lon="1.90988">
        <ele>342</ele>
        <time>2006-12-07T18:02:55Z</time>
      </trkpt>
      <trkpt lat="43.26339" lon="1.91029">
        <ele>334</ele>
        <time>2006-12-07T18:02:55Z</time>
      </trkpt>
      <trkpt lat="43.2636" lon="1.91072">
        <ele>327</ele>
        <time>2006-12-07T18:02:55Z</time>
      </trkpt>
      <trkpt lat="43.26397" lon="1.91106">
        <ele>328</ele>
        <time>2006-12-07T18:02:55Z</time>
      </trkpt>
      <trkpt lat="43.26465" lon="1.91111">
        <ele>321</ele>
        <time>2006-12-07T18:02:55Z</time>
      </trkpt>
      <trkpt lat="43.26545" lon="1.91149">
        <ele>318</ele>
        <time>2006-12-07T18:02:55Z</time>
      </trkpt>
      <trkpt lat="43.2665" lon="1.91164">
        <ele>311</ele>
        <time>2006-12-07T18:02:55Z</time>
      </trkpt>
      <trkpt lat="43.26837" lon="1.91269">
        <ele>298</ele>
        <time>2006-12-07T18:02:55Z</time>
      </trkpt>
      <trkpt lat="43.26869" lon="1.91272">
        <ele>298</ele>
        <time>2006-12-07T18:02:55Z</time>
      </trkpt>
      <trkpt lat="43.26918" lon="1.91295">
        <ele>296</ele>
        <time>2006-12-07T18:02:55Z</time>
      </trkpt>
      <trkpt lat="43.26925" lon="1.91302">
        <ele>295</ele>
        <time>2006-12-07T18:02:55Z</time>
      </trkpt>
      <trkpt lat="43.26935" lon="1.91321">
        <ele>294</ele>
        <time>2006-12-07T18:02:55Z</time>
      </trkpt>
      <trkpt lat="43.26963" lon="1.91345">
        <ele>291</ele>
        <time>2006-12-07T18:02:55Z</time>
      </trkpt>
      <trkpt lat="43.27002" lon="1.91364">
        <ele>289</ele>
        <time>2006-12-07T18:02:55Z</time>
      </trkpt>
      <trkpt lat="43.27043" lon="1.91345">
        <ele>285</ele>
        <time>2006-12-07T18:02:55Z</time>
      </trkpt>
      <trkpt lat="43.27062" lon="1.91342">
        <ele>281</ele>
        <time>2006-12-07T18:02:55Z</time>
      </trkpt>
      <trkpt lat="43.27135" lon="1.91362">
        <ele>270</ele>
        <time>2006-12-07T18:02:55Z</time>
      </trkpt>
      <trkpt lat="43.27167" lon="1.91383">
        <ele>268</ele>
        <time>2006-12-07T18:02:55Z</time>
      </trkpt>
      <trkpt lat="43.27311" lon="1.91581">
        <ele>262</ele>
        <time>2006-12-07T18:02:55Z</time>
      </trkpt>
      <trkpt lat="43.27347" lon="1.91671">
        <ele>262</ele>
        <time>2006-12-07T18:02:55Z</time>
      </trkpt>
      <trkpt lat="43.27362" lon="1.91731">
        <ele>258</ele>
        <time>2006-12-07T18:02:55Z</time>
      </trkpt>
      <trkpt lat="43.27386" lon="1.91769">
        <ele>255</ele>
        <time>2006-12-07T18:02:55Z</time>
      </trkpt>
      <trkpt lat="43.27429" lon="1.91817">
        <ele>252</ele>
        <time>2006-12-07T18:02:55Z</time>
      </trkpt>
      <trkpt lat="43.27446" lon="1.91825">
        <ele>251</ele>
        <time>2006-12-07T18:02:55Z</time>
      </trkpt>
      <trkpt lat="43.27487" lon="1.91778">
        <ele>247</ele>
        <time>2006-12-07T18:02:55Z</time>
      </trkpt>
      <trkpt lat="43.27581" lon="1.91688">
        <ele>236</ele>
        <time>2006-12-07T18:02:55Z</time>
      </trkpt>
      <trkpt lat="43.27862" lon="1.91445">
        <ele>236</ele>
        <time>2006-12-07T18:02:55Z</time>
      </trkpt>
      <trkpt lat="43.27948" lon="1.91402">
        <ele>236</ele>
        <time>2006-12-07T18:02:55Z</time>
      </trkpt>
      <trkpt lat="43.27993" lon="1.91396">
        <ele>232</ele>
        <time>2006-12-07T18:02:55Z</time>
      </trkpt>
      <trkpt lat="43.28113" lon="1.91355">
        <ele>228</ele>
        <time>2006-12-07T18:02:55Z</time>
      </trkpt>
      <trkpt lat="43.28214" lon="1.91312">
        <ele>226</ele>
        <time>2006-12-07T18:02:55Z</time>
      </trkpt>
      <trkpt lat="43.28251" lon="1.91308">
        <ele>222</ele>
        <time>2006-12-07T18:02:55Z</time>
      </trkpt>
      <trkpt lat="43.28281" lon="1.91306">
        <ele>220</ele>
        <time>2006-12-07T18:02:55Z</time>
      </trkpt>
      <trkpt lat="43.28358" lon="1.91334">
        <ele>217</ele>
        <time>2006-12-07T18:02:55Z</time>
      </trkpt>
      <trkpt lat="43.28399" lon="1.91364">
        <ele>216</ele>
        <time>2006-12-07T18:02:55Z</time>
      </trkpt>
      <trkpt lat="43.28538" lon="1.91512">
        <ele>217</ele>
        <time>2006-12-07T18:02:55Z</time>
      </trkpt>
      <trkpt lat="43.28562" lon="1.9155">
        <ele>213</ele>
        <time>2006-12-07T18:02:55Z</time>
      </trkpt>
      <trkpt lat="43.28583" lon="1.91611">
        <ele>212</ele>
        <time>2006-12-07T18:02:55Z</time>
      </trkpt>
      <trkpt lat="43.2863" lon="1.91834">
        <ele>211</ele>
        <time>2006-12-07T18:02:55Z</time>
      </trkpt>
      <trkpt lat="43.2863" lon="1.92063">
        <ele>209</ele>
        <time>2006-12-07T18:02:55Z</time>
      </trkpt>
      <trkpt lat="43.2865" lon="1.92119">
        <ele>208</ele>
        <time>2006-12-07T18:02:55Z</time>
      </trkpt>
      <trkpt lat="43.28671" lon="1.92134">
        <ele>206</ele>
        <time>2006-12-07T18:02:55Z</time>
      </trkpt>
      <trkpt lat="43.28697" lon="1.92134">
        <ele>204</ele>
        <time>2006-12-07T18:02:55Z</time>
      </trkpt>
    </trkseg>
  </trk>
</gpx>